BAW251 EGLL-SCEL

Flight info

Callsign BAW251
Flight time 14h 26m
Altitude 36000
Route DCT GASGU N621 EVTES N514 ADKIK DCT JOZMA DCT GAPLI/M086F360 DCT TAMEL DCT GONAN DCT 40N020W 33N030W 29N035W 25N040W/M086F380 21N045W DCT OXODE/N0499F380 DCT 15N050W 10N055W DCT TRAPP UM527 UMREM/N0489F400 UM527 GEDOV/N0494F390 UL309 KOTOM/N0488F410 UL309 GRAFO/N0489F400 UL309 EMPEX/N0486F410 UL309 LOA UQ814 LITUX UT293 ENTOP UQ815 SIMOK SIMOK7B
Aircraft B789/H-SDE1E2E3FGHIJ2J3J4J5M1RWXY/LB1D1

Departure

Time 2026-05-06 21:02
Airport London Heathrow Airport (EGLL)

Arrival

Time 2026-05-07 11:28
Airport Comodoro Arturo Merino Benítez International Airport (SCEL)
Time Latitude Longitude Altitude Speed Heading
2026-05-06 20:42 51.46917 -0.47729 92 ft 0 kts 90°
2026-05-06 20:53 51.46917 -0.47741 92 ft 3 kts 90°
2026-05-06 20:53 51.46917 -0.47774 92 ft 3 kts 90°
2026-05-06 20:54 51.46916 -0.47804 92 ft 3 kts 90°
2026-05-06 20:54 51.46918 -0.47835 91 ft 3 kts 112°
2026-05-06 20:54 51.46928 -0.47859 91 ft 3 kts 149°
2026-05-06 20:54 51.46946 -0.47870 91 ft 3 kts 175°
2026-05-06 20:55 51.46963 -0.47871 92 ft 1 kts 179°
2026-05-06 20:55 51.46963 -0.47872 92 ft 2 kts 180°
2026-05-06 20:55 51.46967 -0.47872 92 ft 0 kts 179°
2026-05-06 20:57 51.46966 -0.47872 92 ft 1 kts 180°
2026-05-06 20:57 51.46934 -0.47872 91 ft 9 kts 180°
2026-05-06 20:58 51.46854 -0.47871 92 ft 12 kts 179°
2026-05-06 20:58 51.46775 -0.47870 92 ft 11 kts 179°
2026-05-06 20:58 51.46696 -0.47869 92 ft 11 kts 179°
2026-05-06 20:58 51.46660 -0.47902 96 ft 6 kts 238°
2026-05-06 20:59 51.46653 -0.47976 94 ft 9 kts 270°
2026-05-06 20:59 51.46653 -0.48099 92 ft 12 kts 270°
2026-05-06 20:59 51.46652 -0.48232 92 ft 12 kts 269°
2026-05-06 20:59 51.46652 -0.48363 92 ft 12 kts 269°
2026-05-06 21:00 51.46651 -0.48449 92 ft 13 kts 269°
2026-05-06 21:00 51.46651 -0.48592 92 ft 13 kts 270°
2026-05-06 21:00 51.46621 -0.48752 95 ft 11 kts 214°
2026-05-06 21:00 51.46575 -0.48782 96 ft 11 kts 196°
2026-05-06 21:01 51.46509 -0.48770 95 ft 9 kts 151°
2026-05-06 21:01 51.46480 -0.48703 97 ft 6 kts 108°
2026-05-06 21:01 51.46478 -0.48571 93 ft 25 kts 88°
2026-05-06 21:01 51.46480 -0.48014 92 ft 80 kts 90°
2026-05-06 21:02 51.46483 -0.46800 97 ft 136 kts 90°
2026-05-06 21:02 51.46485 -0.45044 207 ft 170 kts 94°
2026-05-06 21:02 51.46446 -0.43078 773 ft 183 kts 92°
2026-05-06 21:02 51.46013 -0.41185 1614 ft 191 kts 123°
2026-05-06 21:03 51.45231 -0.39440 2245 ft 193 kts 123°
2026-05-06 21:03 51.44561 -0.37734 2828 ft 187 kts 117°
2026-05-06 21:03 51.43938 -0.35833 3155 ft 203 kts 115°
2026-05-06 21:03 51.42994 -0.34009 3243 ft 233 kts 141°
2026-05-06 21:04 51.41467 -0.32786 3377 ft 262 kts 167°
2026-05-06 21:04 51.40312 -0.32638 3746 ft 265 kts 184°
2026-05-06 21:04 51.38554 -0.33375 4619 ft 265 kts 211°
2026-05-06 21:04 51.37097 -0.35180 5411 ft 266 kts 221°
2026-05-06 21:05 51.35715 -0.37165 6156 ft 269 kts 224°
2026-05-06 21:05 51.34332 -0.39212 6871 ft 272 kts 224°
2026-05-06 21:05 51.32928 -0.41250 7239 ft 275 kts 223°
2026-05-06 21:05 51.31524 -0.43383 7761 ft 275 kts 231°
2026-05-06 21:06 51.30451 -0.45915 8486 ft 278 kts 245°
2026-05-06 21:06 51.29772 -0.48814 9194 ft 279 kts 256°
2026-05-06 21:06 51.29231 -0.51812 9894 ft 283 kts 255°
2026-05-06 21:06 51.28678 -0.54843 10249 ft 298 kts 255°
2026-05-06 21:07 51.28021 -0.58140 10290 ft 324 kts 250°
2026-05-06 21:07 51.27329 -0.61650 10743 ft 332 kts 256°
2026-05-06 21:07 51.26713 -0.65216 11453 ft 335 kts 255°
2026-05-06 21:07 51.26023 -0.68793 12097 ft 339 kts 253°
2026-05-06 21:08 51.25295 -0.72386 12745 ft 342 kts 253°
2026-05-06 21:08 51.24579 -0.76023 13408 ft 345 kts 254°
2026-05-06 21:08 51.23870 -0.79703 14028 ft 348 kts 254°
2026-05-06 21:08 51.23149 -0.83403 14606 ft 351 kts 253°
2026-05-06 21:09 51.22413 -0.87137 15188 ft 354 kts 253°
2026-05-06 21:09 51.21671 -0.90897 15767 ft 356 kts 253°
2026-05-06 21:09 51.20910 -0.94677 16321 ft 359 kts 250°
2026-05-06 21:09 51.19639 -0.98120 16874 ft 363 kts 233°
2026-05-06 21:10 51.18096 -1.01328 17399 ft 366 kts 233°
2026-05-06 21:10 51.16520 -1.04536 17966 ft 369 kts 233°
2026-05-06 21:10 51.14934 -1.07768 18483 ft 371 kts 233°
2026-05-06 21:10 51.13344 -1.11035 18935 ft 374 kts 233°
2026-05-06 21:11 51.11744 -1.14321 19406 ft 376 kts 233°
2026-05-06 21:11 51.10133 -1.17611 19855 ft 378 kts 233°
2026-05-06 21:11 51.08506 -1.20928 20310 ft 381 kts 233°
2026-05-06 21:11 51.06878 -1.24246 20767 ft 383 kts 233°
2026-05-06 21:12 51.05230 -1.27605 21198 ft 385 kts 233°
2026-05-06 21:12 51.03575 -1.30971 21640 ft 387 kts 233°
2026-05-06 21:12 51.01909 -1.34354 22047 ft 390 kts 233°
2026-05-06 21:12 51.00357 -1.37897 22439 ft 391 kts 245°
2026-05-06 21:13 50.99434 -1.41877 22828 ft 392 kts 255°
2026-05-06 21:13 50.98711 -1.46064 23209 ft 394 kts 255°
2026-05-06 21:13 50.98008 -1.50286 23598 ft 396 kts 256°
2026-05-06 21:13 50.97293 -1.54528 23919 ft 398 kts 255°
2026-05-06 21:14 50.96558 -1.58787 24262 ft 400 kts 255°
2026-05-06 21:14 50.95822 -1.63044 24569 ft 402 kts 255°
2026-05-06 21:14 50.95088 -1.67323 24889 ft 403 kts 255°
2026-05-06 21:14 50.94349 -1.71625 25200 ft 404 kts 255°
2026-05-06 21:15 50.93603 -1.75938 25525 ft 406 kts 255°
2026-05-06 21:15 50.92859 -1.80221 25839 ft 408 kts 255°
2026-05-06 21:15 50.92106 -1.84558 26152 ft 409 kts 255°
2026-05-06 21:15 50.91349 -1.88912 26471 ft 411 kts 255°
2026-05-06 21:16 50.90586 -1.93282 26787 ft 412 kts 255°
2026-05-06 21:16 50.89818 -1.97669 27099 ft 414 kts 255°
2026-05-06 21:16 50.89044 -2.02077 27415 ft 415 kts 255°
2026-05-06 21:16 50.88268 -2.06493 27734 ft 417 kts 255°
2026-05-06 21:17 50.87485 -2.10932 28060 ft 419 kts 255°
2026-05-06 21:17 50.86699 -2.15377 28360 ft 421 kts 255°
2026-05-06 21:17 50.85906 -2.19854 28681 ft 422 kts 255°
2026-05-06 21:17 50.85110 -2.24336 28985 ft 424 kts 255°
2026-05-06 21:18 50.84316 -2.28790 29297 ft 426 kts 255°
2026-05-06 21:18 50.83510 -2.33307 29628 ft 427 kts 255°
2026-05-06 21:18 50.82698 -2.37844 29930 ft 430 kts 255°
2026-05-06 21:18 50.81880 -2.42400 30228 ft 431 kts 255°
2026-05-06 21:19 50.81057 -2.46974 30488 ft 433 kts 255°
2026-05-06 21:19 50.80229 -2.51563 30757 ft 435 kts 255°
2026-05-06 21:19 50.79490 -2.56204 31025 ft 436 kts 261°
2026-05-06 21:19 50.78961 -2.60937 31259 ft 439 kts 260°
2026-05-06 21:20 50.78404 -2.65683 31534 ft 440 kts 260°
2026-05-06 21:20 50.77842 -2.70457 31797 ft 442 kts 260°
2026-05-06 21:20 50.77286 -2.75252 32064 ft 445 kts 260°
2026-05-06 21:20 50.76736 -2.79983 32319 ft 447 kts 260°
2026-05-06 21:21 50.76166 -2.84829 32592 ft 449 kts 260°
2026-05-06 21:21 50.75591 -2.89683 32864 ft 451 kts 260°
2026-05-06 21:21 50.75014 -2.94560 33118 ft 453 kts 260°
2026-05-06 21:21 50.74433 -2.99464 33384 ft 455 kts 260°
2026-05-06 21:22 50.73845 -3.04388 33649 ft 457 kts 260°
2026-05-06 21:22 50.73253 -3.09331 33902 ft 459 kts 259°
2026-05-06 21:22 50.72654 -3.14314 34131 ft 462 kts 259°
2026-05-06 21:22 50.72053 -3.19298 34333 ft 464 kts 259°
2026-05-06 21:23 50.71446 -3.24317 34525 ft 466 kts 259°
2026-05-06 21:23 50.70833 -3.29358 34724 ft 468 kts 259°
2026-05-06 21:23 50.70224 -3.34345 34959 ft 469 kts 259°
2026-05-06 21:23 50.69605 -3.39402 35222 ft 470 kts 259°
2026-05-06 21:24 50.68983 -3.44460 35470 ft 470 kts 259°
2026-05-06 21:24 50.68356 -3.49535 35716 ft 471 kts 259°
2026-05-06 21:24 50.67727 -3.54616 35945 ft 472 kts 259°
2026-05-06 21:25 50.66451 -3.64857 36017 ft 477 kts 259°
2026-05-06 21:25 50.65169 -3.75070 36011 ft 473 kts 259°
2026-05-06 21:26 50.63884 -3.85229 36013 ft 473 kts 259°
2026-05-06 21:26 50.62589 -3.95392 36004 ft 473 kts 259°
2026-05-06 21:27 50.61204 -4.05518 36005 ft 473 kts 258°
2026-05-06 21:27 50.59828 -4.15570 36010 ft 473 kts 258°
2026-05-06 21:28 50.58438 -4.25677 36007 ft 472 kts 258°
2026-05-06 21:28 50.57032 -4.35787 36011 ft 473 kts 258°
2026-05-06 21:29 50.55623 -4.45894 36012 ft 473 kts 258°
2026-05-06 21:29 50.54199 -4.56005 36015 ft 474 kts 258°
2026-05-06 21:30 50.52767 -4.66122 36013 ft 474 kts 258°
2026-05-06 21:30 50.51326 -4.76227 36012 ft 473 kts 258°
2026-05-06 21:31 50.49887 -4.86256 36013 ft 473 kts 258°
2026-05-06 21:31 50.48430 -4.96341 36016 ft 474 kts 258°
2026-05-06 21:32 50.46959 -5.06461 36013 ft 474 kts 258°
2026-05-06 21:32 50.44749 -5.21535 36010 ft 473 kts 258°
2026-05-06 21:33 50.43263 -5.31589 36001 ft 473 kts 257°
2026-05-06 21:33 50.41766 -5.41652 36002 ft 474 kts 257°
2026-05-06 21:34 50.40257 -5.51731 36002 ft 475 kts 257°
2026-05-06 21:34 50.38739 -5.61803 36002 ft 475 kts 257°
2026-05-06 21:35 50.37215 -5.71854 36010 ft 476 kts 257°
2026-05-06 21:35 50.35673 -5.81959 36014 ft 477 kts 257°
2026-05-06 21:36 50.34121 -5.92067 36016 ft 477 kts 257°
2026-05-06 21:36 50.32570 -6.02103 36018 ft 477 kts 257°
2026-05-06 21:37 50.31000 -6.12202 36013 ft 477 kts 257°
2026-05-06 21:37 50.29419 -6.22305 36022 ft 478 kts 257°
2026-05-06 21:38 50.27830 -6.32396 36019 ft 478 kts 257°
2026-05-06 21:38 50.26242 -6.42424 36014 ft 478 kts 256°
2026-05-06 21:39 50.24635 -6.52507 36017 ft 478 kts 256°
2026-05-06 21:39 50.23019 -6.62583 36010 ft 478 kts 256°
2026-05-06 21:40 50.21393 -6.72664 36009 ft 478 kts 256°
2026-05-06 21:40 50.19770 -6.82667 36008 ft 479 kts 256°
2026-05-06 21:41 50.18124 -6.92751 36008 ft 480 kts 256°
2026-05-06 21:41 50.16468 -7.02829 36010 ft 479 kts 256°
2026-05-06 21:42 50.14804 -7.12905 36009 ft 479 kts 256°
2026-05-06 21:42 50.13141 -7.22909 36008 ft 479 kts 256°
2026-05-06 21:43 50.11461 -7.32960 36007 ft 479 kts 256°
2026-05-06 21:43 50.09770 -7.43015 36008 ft 479 kts 256°
2026-05-06 21:44 50.08074 -7.53042 36007 ft 479 kts 256°
2026-05-06 21:44 50.06380 -7.62999 36009 ft 479 kts 256°
2026-05-06 21:45 50.04666 -7.73021 36008 ft 479 kts 255°
2026-05-06 21:45 50.02941 -7.83043 36009 ft 480 kts 255°
2026-05-06 21:46 50.01205 -7.93074 36006 ft 480 kts 255°
2026-05-06 21:46 49.98710 -8.02537 36026 ft 479 kts 235°
2026-05-06 21:47 49.94728 -8.10880 36029 ft 481 kts 233°
2026-05-06 21:47 49.90659 -8.19141 36026 ft 481 kts 233°
2026-05-06 21:48 49.86622 -8.27424 36028 ft 481 kts 233°
2026-05-06 21:48 49.82558 -8.35670 36029 ft 481 kts 233°
2026-05-06 21:49 49.78500 -8.43916 36030 ft 481 kts 233°
2026-05-06 21:49 49.74459 -8.52081 36032 ft 481 kts 233°
2026-05-06 21:50 49.70389 -8.60289 36029 ft 480 kts 232°
2026-05-06 21:50 49.67002 -8.67098 36031 ft 480 kts 232°
2026-05-06 21:51 49.62917 -8.75286 36030 ft 481 kts 232°
2026-05-06 21:51 49.58828 -8.83459 36031 ft 480 kts 232°
2026-05-06 21:52 49.54742 -8.91599 36031 ft 480 kts 232°
2026-05-06 21:52 49.50675 -8.99678 36031 ft 480 kts 232°
2026-05-06 21:53 49.46579 -9.07789 36032 ft 479 kts 232°
2026-05-06 21:53 49.42479 -9.15883 36034 ft 479 kts 232°
2026-05-06 21:54 49.38366 -9.23978 36036 ft 480 kts 232°
2026-05-06 21:54 49.34281 -9.31995 36039 ft 480 kts 232°
2026-05-06 21:55 49.30167 -9.40042 36038 ft 479 kts 232°
2026-05-06 21:55 49.26052 -9.48068 36037 ft 479 kts 231°
2026-05-06 21:56 49.21930 -9.56084 36036 ft 479 kts 231°
2026-05-06 21:56 49.17791 -9.64108 36038 ft 480 kts 231°
2026-05-06 21:57 49.13649 -9.72115 36038 ft 480 kts 231°
2026-05-06 21:57 49.09493 -9.80123 36038 ft 481 kts 231°
2026-05-06 21:58 49.05332 -9.88117 36040 ft 481 kts 231°
2026-05-06 21:58 49.01167 -9.96095 36040 ft 481 kts 231°
2026-05-06 21:59 48.96998 -10.04057 36041 ft 481 kts 231°
2026-05-06 21:59 48.92851 -10.11953 36040 ft 481 kts 231°
2026-05-06 22:00 48.88660 -10.19909 36043 ft 482 kts 231°
2026-05-06 22:00 48.84454 -10.27870 36041 ft 482 kts 231°
2026-05-06 22:01 48.80247 -10.35809 36041 ft 482 kts 231°
2026-05-06 22:01 48.76074 -10.43662 36041 ft 481 kts 231°
2026-05-06 22:02 48.71503 -10.51046 36049 ft 481 kts 215°
2026-05-06 22:02 48.65948 -10.56764 36047 ft 482 kts 214°
2026-05-06 22:03 48.60413 -10.62396 36046 ft 482 kts 213°
2026-05-06 22:03 48.54841 -10.68052 36042 ft 482 kts 213°
2026-05-06 22:04 48.49264 -10.73700 36043 ft 482 kts 213°
2026-05-06 22:04 48.43693 -10.79324 36042 ft 482 kts 213°
2026-05-06 22:05 48.38118 -10.84941 36043 ft 482 kts 213°
2026-05-06 22:05 48.32540 -10.90542 36040 ft 481 kts 213°
2026-05-06 22:06 48.27010 -10.96082 36041 ft 481 kts 213°
2026-05-06 22:06 48.21426 -11.01661 36039 ft 482 kts 213°
2026-05-06 22:07 48.15842 -11.07225 36040 ft 482 kts 213°
2026-05-06 22:07 48.10250 -11.12782 36038 ft 482 kts 213°
2026-05-06 22:08 48.04657 -11.18325 36038 ft 482 kts 213°
2026-05-06 22:08 47.99105 -11.23814 36038 ft 482 kts 213°
2026-05-06 22:09 47.93508 -11.29332 36038 ft 481 kts 213°
2026-05-06 22:09 47.87919 -11.34827 36032 ft 481 kts 214°
2026-05-06 22:10 47.82325 -11.40314 36035 ft 482 kts 214°
2026-05-06 22:10 47.76711 -11.45805 36039 ft 482 kts 214°
2026-05-06 22:11 47.71131 -11.51250 36054 ft 483 kts 214°
2026-05-06 22:11 47.65502 -11.56726 36045 ft 483 kts 214°
2026-05-06 22:12 47.59875 -11.62188 36042 ft 483 kts 214°
2026-05-06 22:12 47.54273 -11.67611 36048 ft 484 kts 214°
2026-05-06 22:13 47.48621 -11.73067 36045 ft 485 kts 214°
2026-05-06 22:13 47.42964 -11.78515 36039 ft 485 kts 214°
2026-05-06 22:14 47.37309 -11.83947 36037 ft 485 kts 214°
2026-05-06 22:14 47.31645 -11.89373 36044 ft 484 kts 214°
2026-05-06 22:15 47.26030 -11.94738 36042 ft 484 kts 214°
2026-05-06 22:15 47.20372 -12.00129 36042 ft 484 kts 214°
2026-05-06 22:16 47.14701 -12.05520 36043 ft 485 kts 214°
2026-05-06 22:16 47.09029 -12.10898 36044 ft 486 kts 214°
2026-05-06 22:17 47.03341 -12.16277 36049 ft 487 kts 214°
2026-05-06 22:17 46.97630 -12.21664 36046 ft 488 kts 214°
2026-05-06 22:18 46.91919 -12.27038 36046 ft 488 kts 214°
2026-05-06 22:18 46.86201 -12.32403 36049 ft 488 kts 214°
2026-05-06 22:19 46.80476 -12.37762 36049 ft 489 kts 214°
2026-05-06 22:19 46.74748 -12.43109 36047 ft 488 kts 214°
2026-05-06 22:20 46.69063 -12.48404 36046 ft 487 kts 214°
2026-05-06 22:20 46.63348 -12.53713 36049 ft 487 kts 214°
2026-05-06 22:21 46.57628 -12.59012 36049 ft 488 kts 214°
2026-05-06 22:21 46.51903 -12.64303 36050 ft 488 kts 215°
2026-05-06 22:22 46.46161 -12.69597 36048 ft 488 kts 215°
2026-05-06 22:22 46.40417 -12.74877 36061 ft 489 kts 215°
2026-05-06 22:23 46.34673 -12.80146 36061 ft 489 kts 215°
2026-05-06 22:23 46.28957 -12.85376 36052 ft 488 kts 215°
2026-05-06 22:24 46.23210 -12.90619 36067 ft 489 kts 215°
2026-05-06 22:24 46.17438 -12.95874 36054 ft 490 kts 215°
2026-05-06 22:25 46.11667 -13.01114 36052 ft 490 kts 215°
2026-05-06 22:25 46.05921 -13.06318 36053 ft 490 kts 215°
2026-05-06 22:26 46.00138 -13.11543 36055 ft 491 kts 215°
2026-05-06 22:26 45.94354 -13.16755 36057 ft 491 kts 215°
2026-05-06 22:27 45.88547 -13.21976 36057 ft 492 kts 215°
2026-05-06 22:27 45.82774 -13.27152 36072 ft 492 kts 215°
2026-05-06 22:28 45.76950 -13.32362 36067 ft 493 kts 215°
2026-05-06 22:28 45.71121 -13.37563 36061 ft 493 kts 216°
2026-05-06 22:29 45.65290 -13.42753 36059 ft 494 kts 216°
2026-05-06 22:29 45.59451 -13.47937 36060 ft 494 kts 216°
2026-05-06 22:30 45.53603 -13.53116 36063 ft 494 kts 216°
2026-05-06 22:30 45.47796 -13.58247 36057 ft 495 kts 216°
2026-05-06 22:31 45.41944 -13.63403 36061 ft 494 kts 216°
2026-05-06 22:31 45.36092 -13.68548 36064 ft 493 kts 216°
2026-05-06 22:32 45.30247 -13.73673 36061 ft 493 kts 216°
2026-05-06 22:32 45.24408 -13.78781 36064 ft 493 kts 216°
2026-05-06 22:33 45.18609 -13.83842 36061 ft 492 kts 215°
2026-05-06 22:33 45.12772 -13.88924 36068 ft 492 kts 215°
2026-05-06 22:34 45.06933 -13.93994 36065 ft 492 kts 215°
2026-05-06 22:34 45.01108 -13.99062 36066 ft 491 kts 218°
2026-05-06 22:35 44.96039 -14.05293 36085 ft 486 kts 227°
2026-05-06 22:35 44.91148 -14.11894 36085 ft 486 kts 227°
2026-05-06 22:36 44.86233 -14.18446 36087 ft 486 kts 227°
2026-05-06 22:36 44.81326 -14.25002 36087 ft 486 kts 227°
2026-05-06 22:37 44.76414 -14.31535 36080 ft 484 kts 227°
2026-05-06 22:37 44.71540 -14.38007 36076 ft 484 kts 227°
2026-05-06 22:38 44.66632 -14.44507 36071 ft 485 kts 227°
2026-05-06 22:38 44.61716 -14.51002 36068 ft 484 kts 227°
2026-05-06 22:39 44.56811 -14.57466 36069 ft 483 kts 227°
2026-05-06 22:39 44.52733 -14.62828 36066 ft 483 kts 227°
2026-05-06 22:40 44.47822 -14.69271 36072 ft 483 kts 227°
2026-05-06 22:40 44.42901 -14.75713 36071 ft 484 kts 227°
2026-05-06 22:41 44.35549 -14.85306 36072 ft 484 kts 227°
2026-05-06 22:42 44.30626 -14.91712 36069 ft 484 kts 227°
2026-05-06 22:42 44.25696 -14.98111 36074 ft 484 kts 227°
2026-05-06 22:43 44.20761 -15.04503 36004 ft 484 kts 226°
2026-05-06 22:43 44.15827 -15.10873 36077 ft 484 kts 226°
2026-05-06 22:44 44.10877 -15.17253 36073 ft 485 kts 226°
2026-05-06 22:44 44.05918 -15.23627 36077 ft 485 kts 226°
2026-05-06 22:45 44.00946 -15.30003 36076 ft 486 kts 226°
2026-05-06 22:45 43.96003 -15.36327 36080 ft 486 kts 226°
2026-05-06 22:46 43.91017 -15.42692 36079 ft 487 kts 226°
2026-05-06 22:46 43.86018 -15.49056 36088 ft 487 kts 226°
2026-05-06 22:47 43.81025 -15.55400 36083 ft 487 kts 226°
2026-05-06 22:47 43.76051 -15.61703 36078 ft 487 kts 226°
2026-05-06 22:48 43.71048 -15.68028 36079 ft 486 kts 226°
2026-05-06 22:48 43.66053 -15.74329 36078 ft 486 kts 227°
2026-05-06 22:49 43.61050 -15.80624 36080 ft 486 kts 227°
2026-05-06 22:49 43.56046 -15.86907 36079 ft 486 kts 227°
2026-05-06 22:50 43.51070 -15.93139 36078 ft 486 kts 227°
2026-05-06 22:50 43.46063 -15.99394 36079 ft 486 kts 227°
2026-05-06 22:51 43.41048 -16.05647 36078 ft 488 kts 227°
2026-05-06 22:51 43.36007 -16.11916 36078 ft 489 kts 227°
2026-05-06 22:52 43.30958 -16.18181 36082 ft 490 kts 227°
2026-05-06 22:52 43.25898 -16.24445 36086 ft 490 kts 227°
2026-05-06 22:53 43.20856 -16.30672 36081 ft 491 kts 227°
2026-05-06 22:53 43.15775 -16.36932 36083 ft 492 kts 227°
2026-05-06 22:54 43.10678 -16.43198 36084 ft 492 kts 227°
2026-05-06 22:54 43.05571 -16.49461 36084 ft 493 kts 228°
2026-05-06 22:55 43.00450 -16.55727 36083 ft 494 kts 228°
2026-05-06 22:55 42.95333 -16.61972 36081 ft 493 kts 228°
2026-05-06 22:56 42.90214 -16.68206 36083 ft 493 kts 228°
2026-05-06 22:56 42.85093 -16.74428 36085 ft 493 kts 228°
2026-05-06 22:57 42.79997 -16.80608 36079 ft 494 kts 228°
2026-05-06 22:57 42.74852 -16.86829 36077 ft 494 kts 228°
2026-05-06 22:58 42.69701 -16.93046 36093 ft 496 kts 228°
2026-05-06 22:58 42.64535 -16.99263 36088 ft 496 kts 228°
2026-05-06 22:59 42.59366 -17.05473 36084 ft 496 kts 228°
2026-05-06 22:59 42.54191 -17.11673 36086 ft 496 kts 227°
2026-05-06 23:00 42.49005 -17.17873 36081 ft 496 kts 227°
2026-05-06 23:00 42.43852 -17.24020 36084 ft 497 kts 227°
2026-05-06 23:01 42.38659 -17.30201 36083 ft 498 kts 227°
2026-05-06 23:01 42.33455 -17.36379 36083 ft 498 kts 227°
2026-05-06 23:02 42.28243 -17.42554 36079 ft 498 kts 227°
2026-05-06 23:02 42.23029 -17.48716 36079 ft 498 kts 227°
2026-05-06 23:03 42.17816 -17.54864 36082 ft 498 kts 227°
2026-05-06 23:03 42.12595 -17.61006 36083 ft 498 kts 227°
2026-05-06 23:04 42.07373 -17.67136 36086 ft 499 kts 227°
2026-05-06 23:04 42.02138 -17.73267 36084 ft 499 kts 227°
2026-05-06 23:05 41.96894 -17.79396 36097 ft 500 kts 227°
2026-05-06 23:05 41.91661 -17.85495 36102 ft 501 kts 227°
2026-05-06 23:06 41.86388 -17.91629 36100 ft 500 kts 227°
2026-05-06 23:06 41.81125 -17.97739 36096 ft 500 kts 226°
2026-05-06 23:07 41.75903 -18.03785 36086 ft 499 kts 226°
2026-05-06 23:07 41.70652 -18.09853 36088 ft 499 kts 226°
2026-05-06 23:08 41.65396 -18.15912 36083 ft 498 kts 226°
2026-05-06 23:08 41.60140 -18.21958 36085 ft 498 kts 226°
2026-05-06 23:09 41.54888 -18.27985 36089 ft 496 kts 226°
2026-05-06 23:09 41.49651 -18.33983 36092 ft 496 kts 226°
2026-05-06 23:10 41.44414 -18.39968 36086 ft 495 kts 226°
2026-05-06 23:10 41.39211 -18.45900 36087 ft 495 kts 226°
2026-05-06 23:11 41.33974 -18.51857 36089 ft 494 kts 226°
2026-05-06 23:11 41.28742 -18.57797 36085 ft 495 kts 226°
2026-05-06 23:12 41.23502 -18.63732 36088 ft 494 kts 226°
2026-05-06 23:12 41.18268 -18.69647 36091 ft 494 kts 226°
2026-05-06 23:13 41.13036 -18.75547 36087 ft 492 kts 226°
2026-05-06 23:13 41.07844 -18.81390 36089 ft 492 kts 226°
2026-05-06 23:14 41.02618 -18.87258 36087 ft 492 kts 226°
2026-05-06 23:14 40.97390 -18.93116 36094 ft 492 kts 225°
2026-05-06 23:15 40.92159 -18.98964 36093 ft 491 kts 225°
2026-05-06 23:15 40.86931 -19.04798 36090 ft 492 kts 225°
2026-05-06 23:16 40.81739 -19.10577 36088 ft 490 kts 225°
2026-05-06 23:16 40.76515 -19.16381 36090 ft 490 kts 225°
2026-05-06 23:17 40.71296 -19.22166 36089 ft 489 kts 225°
2026-05-06 23:17 40.66087 -19.27929 36094 ft 489 kts 225°
2026-05-06 23:18 40.60871 -19.33686 36091 ft 489 kts 225°
2026-05-06 23:18 40.55656 -19.39431 36089 ft 489 kts 225°
2026-05-06 23:19 40.50445 -19.45158 36091 ft 488 kts 225°
2026-05-06 23:19 40.45268 -19.50839 36095 ft 488 kts 225°
2026-05-06 23:20 40.40057 -19.56542 36089 ft 487 kts 225°
2026-05-06 23:20 40.34841 -19.62241 36095 ft 487 kts 225°
2026-05-06 23:21 40.29636 -19.67914 36090 ft 486 kts 225°
2026-05-06 23:21 40.24430 -19.73579 36096 ft 487 kts 225°
2026-05-06 23:22 40.19214 -19.79240 36095 ft 487 kts 225°
2026-05-06 23:22 40.14026 -19.84862 36095 ft 487 kts 225°
2026-05-06 23:23 40.08800 -19.90510 36089 ft 487 kts 225°
2026-05-06 23:23 40.03576 -19.96148 36097 ft 487 kts 225°
2026-05-06 23:24 39.98710 -20.02165 36113 ft 476 kts 239°
2026-05-06 23:24 39.94621 -20.08976 36112 ft 477 kts 238°
2026-05-06 23:25 39.90562 -20.15745 36111 ft 476 kts 238°
2026-05-06 23:25 39.86478 -20.22531 36111 ft 476 kts 238°
2026-05-06 23:26 39.82383 -20.29324 36110 ft 476 kts 238°
2026-05-06 23:26 39.78288 -20.36102 36114 ft 477 kts 238°
2026-05-06 23:27 39.74191 -20.42865 36114 ft 476 kts 238°
2026-05-06 23:27 39.70090 -20.49626 36110 ft 475 kts 238°
2026-05-06 23:28 39.65990 -20.56366 36107 ft 474 kts 238°
2026-05-06 23:28 39.61925 -20.63038 36106 ft 475 kts 238°
2026-05-06 23:29 39.57829 -20.69744 36103 ft 474 kts 237°
2026-05-06 23:29 39.54412 -20.75328 36100 ft 474 kts 238°
2026-05-06 23:30 39.50310 -20.82018 36100 ft 473 kts 237°
2026-05-06 23:30 39.46213 -20.88688 36102 ft 473 kts 237°
2026-05-06 23:31 39.42109 -20.95353 36104 ft 472 kts 237°
2026-05-06 23:31 39.38004 -21.02007 36106 ft 472 kts 237°
2026-05-06 23:32 39.33931 -21.08594 36103 ft 472 kts 237°
2026-05-06 23:32 39.29826 -21.15220 36106 ft 472 kts 237°
2026-05-06 23:33 39.25727 -21.21822 36106 ft 471 kts 237°
2026-05-06 23:33 39.21623 -21.28419 36113 ft 471 kts 237°
2026-05-06 23:34 39.17517 -21.35004 36107 ft 470 kts 237°
2026-05-06 23:34 39.13435 -21.41540 36107 ft 471 kts 237°
2026-05-06 23:35 39.09325 -21.48103 36110 ft 470 kts 237°
2026-05-06 23:35 39.05214 -21.54658 36106 ft 470 kts 237°
2026-05-06 23:36 39.01108 -21.61190 36111 ft 469 kts 237°
2026-05-06 23:36 38.97001 -21.67711 36110 ft 470 kts 237°
2026-05-06 23:37 38.92884 -21.74232 36108 ft 469 kts 236°
2026-05-06 23:37 38.88797 -21.80698 36236 ft 466 kts 234°
2026-05-06 23:37 38.86786 -21.83873 36142 ft 452 kts 234°
2026-05-06 23:38 38.84826 -21.86952 36125 ft 438 kts 234°
2026-05-06 23:38 38.82932 -21.89936 36109 ft 427 kts 234°
2026-05-06 23:38 38.81068 -21.92880 36108 ft 426 kts 234°
2026-05-06 23:39 38.77275 -21.98848 36111 ft 436 kts 234°
2026-05-06 23:39 38.73424 -22.04884 36120 ft 438 kts 234°
2026-05-06 23:40 38.69593 -22.10888 36124 ft 437 kts 234°
2026-05-06 23:40 38.65732 -22.16922 36124 ft 437 kts 234°
2026-05-06 23:41 38.61871 -22.22946 36120 ft 438 kts 234°
2026-05-06 23:41 38.57997 -22.28979 36116 ft 438 kts 234°
2026-05-06 23:42 38.54162 -22.34941 36115 ft 437 kts 233°
2026-05-06 23:42 38.50298 -22.40937 36111 ft 437 kts 233°
2026-05-06 23:43 38.46438 -22.46913 36115 ft 436 kts 233°
2026-05-06 23:43 38.42571 -22.52892 36112 ft 436 kts 233°
2026-05-06 23:44 38.38728 -22.58821 36119 ft 436 kts 233°
2026-05-06 23:44 38.34853 -22.64790 36109 ft 436 kts 233°
2026-05-06 23:45 38.30978 -22.70746 36115 ft 435 kts 233°
2026-05-06 23:45 38.27110 -22.76682 36114 ft 435 kts 233°
2026-05-06 23:46 38.23233 -22.82620 36117 ft 436 kts 233°
2026-05-06 23:46 38.19384 -22.88505 36114 ft 436 kts 233°
2026-05-06 23:47 38.15508 -22.94419 36131 ft 435 kts 233°
2026-05-06 23:47 38.11627 -23.00331 36124 ft 435 kts 233°
2026-05-06 23:48 38.07739 -23.06242 36125 ft 435 kts 233°
2026-05-06 23:48 38.03854 -23.12139 36126 ft 435 kts 233°
2026-05-06 23:49 37.99990 -23.17992 36125 ft 434 kts 233°
2026-05-06 23:49 37.96114 -23.23854 36117 ft 433 kts 234°
2026-05-06 23:50 37.92244 -23.29696 36123 ft 432 kts 234°
2026-05-06 23:50 37.86447 -23.38427 36122 ft 431 kts 233°
2026-05-06 23:51 37.82592 -23.44220 36120 ft 430 kts 234°
2026-05-06 23:51 37.78730 -23.50014 36121 ft 430 kts 233°
2026-05-06 23:52 37.74869 -23.55795 36115 ft 429 kts 233°
2026-05-06 23:52 37.71040 -23.61518 36124 ft 429 kts 233°
2026-05-06 23:53 37.67181 -23.67277 36122 ft 430 kts 233°
2026-05-06 23:53 37.63315 -23.73035 36120 ft 429 kts 233°
2026-05-06 23:54 37.59481 -23.78736 36122 ft 430 kts 233°
2026-05-06 23:54 37.55606 -23.84487 36122 ft 430 kts 233°
2026-05-06 23:55 37.51726 -23.90236 36125 ft 430 kts 233°
2026-05-06 23:55 37.47846 -23.95976 36125 ft 430 kts 234°
2026-05-06 23:56 37.43965 -24.01705 36126 ft 429 kts 234°
2026-05-06 23:56 37.40084 -24.07425 36129 ft 429 kts 234°
2026-05-06 23:57 37.36221 -24.13109 36125 ft 430 kts 234°
2026-05-06 23:57 37.32335 -24.18817 36132 ft 430 kts 234°
2026-05-06 23:58 37.28445 -24.24521 36131 ft 429 kts 234°
2026-05-06 23:58 37.24557 -24.30211 36131 ft 429 kts 234°
2026-05-06 23:59 37.20672 -24.35888 36135 ft 429 kts 234°
2026-05-06 23:59 37.16774 -24.41575 36130 ft 429 kts 234°
2026-05-07 00:00 37.12875 -24.47250 36134 ft 429 kts 234°
2026-05-07 00:00 37.09639 -24.51956 36135 ft 429 kts 234°
2026-05-07 00:01 37.05098 -24.58547 36136 ft 430 kts 234°
2026-05-07 00:01 37.01194 -24.64202 36130 ft 429 kts 234°
2026-05-07 00:02 36.97288 -24.69850 36132 ft 429 kts 234°
2026-05-07 00:02 36.93387 -24.75483 36142 ft 428 kts 234°
2026-05-07 00:03 36.89479 -24.81116 36143 ft 429 kts 234°
2026-05-07 00:03 36.85562 -24.86751 36138 ft 429 kts 234°
2026-05-07 00:04 36.81643 -24.92379 36138 ft 429 kts 234°
2026-05-07 00:04 36.77755 -24.97955 36131 ft 429 kts 235°
2026-05-07 00:05 36.73836 -25.03565 36132 ft 428 kts 235°
2026-05-07 00:05 36.69910 -25.09175 36142 ft 429 kts 235°
2026-05-07 00:06 36.65979 -25.14784 36142 ft 430 kts 235°
2026-05-07 00:06 36.62039 -25.20395 36146 ft 429 kts 235°
2026-05-07 00:07 36.58106 -25.25986 36147 ft 429 kts 235°
2026-05-07 00:07 36.54206 -25.31523 36142 ft 428 kts 235°
2026-05-07 00:08 36.50281 -25.37085 36147 ft 428 kts 235°
2026-05-07 00:08 36.46352 -25.42643 36148 ft 428 kts 235°
2026-05-07 00:09 36.42416 -25.48202 36145 ft 428 kts 235°
2026-05-07 00:09 36.38486 -25.53743 36146 ft 427 kts 235°
2026-05-07 00:10 36.34557 -25.59275 36153 ft 427 kts 235°
2026-05-07 00:10 36.30643 -25.64775 36155 ft 427 kts 236°
2026-05-07 00:11 36.26701 -25.70306 36155 ft 427 kts 236°
2026-05-07 00:11 36.22771 -25.75811 36159 ft 427 kts 236°
2026-05-07 00:12 36.18850 -25.81294 36153 ft 427 kts 236°
2026-05-07 00:12 36.14904 -25.86802 36152 ft 427 kts 236°
2026-05-07 00:13 36.10959 -25.92301 36157 ft 428 kts 236°
2026-05-07 00:13 36.07004 -25.97805 36158 ft 428 kts 236°
2026-05-07 00:14 36.03048 -26.03301 36160 ft 428 kts 236°
2026-05-07 00:14 35.99110 -26.08762 36167 ft 428 kts 236°
2026-05-07 00:15 35.95147 -26.14251 36159 ft 428 kts 236°
2026-05-07 00:15 35.91172 -26.19746 36162 ft 429 kts 236°
2026-05-07 00:16 35.87191 -26.25240 36163 ft 430 kts 236°
2026-05-07 00:16 35.83203 -26.30737 36160 ft 430 kts 236°
2026-05-07 00:17 35.79235 -26.36195 36168 ft 430 kts 236°
2026-05-07 00:17 35.75231 -26.41694 36166 ft 431 kts 236°
2026-05-07 00:18 35.71218 -26.47196 36169 ft 431 kts 236°
2026-05-07 00:18 35.67887 -26.51757 36179 ft 431 kts 236°
2026-05-07 00:19 35.63877 -26.57240 36170 ft 431 kts 236°
2026-05-07 00:19 35.59877 -26.62699 36169 ft 431 kts 236°
2026-05-07 00:20 35.55855 -26.68181 36169 ft 432 kts 236°
2026-05-07 00:20 35.51821 -26.73669 36176 ft 432 kts 236°
2026-05-07 00:21 35.47788 -26.79148 36172 ft 433 kts 236°
2026-05-07 00:21 35.43740 -26.84638 36177 ft 434 kts 236°
2026-05-07 00:22 35.39676 -26.90138 36176 ft 435 kts 236°
2026-05-07 00:22 35.35609 -26.95638 36181 ft 436 kts 236°
2026-05-07 00:23 35.31556 -27.01106 36183 ft 437 kts 236°
2026-05-07 00:23 35.27462 -27.06623 36181 ft 437 kts 236°
2026-05-07 00:24 35.23367 -27.12132 36183 ft 438 kts 236°
2026-05-07 00:24 35.19258 -27.17650 36178 ft 439 kts 236°
2026-05-07 00:25 35.15137 -27.23174 36194 ft 440 kts 236°
2026-05-07 00:25 35.11010 -27.28701 36190 ft 441 kts 236°
2026-05-07 00:26 35.06897 -27.34196 36189 ft 441 kts 236°
2026-05-07 00:26 35.02750 -27.39730 36185 ft 442 kts 236°
2026-05-07 00:27 34.98597 -27.45263 36187 ft 442 kts 236°
2026-05-07 00:27 34.94435 -27.50799 36187 ft 443 kts 236°
2026-05-07 00:28 34.90281 -27.56314 36187 ft 443 kts 236°
2026-05-07 00:28 34.86105 -27.61851 36191 ft 444 kts 236°
2026-05-07 00:29 34.81913 -27.67399 36189 ft 445 kts 236°
2026-05-07 00:30 34.73543 -27.78450 36189 ft 443 kts 236°
2026-05-07 00:30 34.69358 -27.83964 36194 ft 444 kts 236°
2026-05-07 00:31 34.65179 -27.89458 36197 ft 445 kts 236°
2026-05-07 00:31 34.60974 -27.94981 36196 ft 446 kts 236°
2026-05-07 00:32 34.56749 -28.00519 36198 ft 447 kts 236°
2026-05-07 00:32 34.52518 -28.06056 36198 ft 447 kts 236°
2026-05-07 00:33 34.48318 -28.11545 36196 ft 447 kts 236°
2026-05-07 00:33 34.44081 -28.17072 36192 ft 447 kts 236°
2026-05-07 00:34 34.39836 -28.22601 36197 ft 448 kts 236°
2026-05-07 00:34 34.35583 -28.28132 36200 ft 449 kts 236°
2026-05-07 00:35 34.31310 -28.33679 36202 ft 450 kts 236°
2026-05-07 00:35 34.27042 -28.39212 36203 ft 450 kts 236°
2026-05-07 00:36 34.22793 -28.44711 36213 ft 450 kts 236°
2026-05-07 00:36 34.18494 -28.50265 36206 ft 451 kts 236°
2026-05-07 00:37 34.14203 -28.55801 36206 ft 452 kts 236°
2026-05-07 00:37 34.09921 -28.61318 36208 ft 453 kts 236°
2026-05-07 00:38 34.05612 -28.66857 36202 ft 453 kts 236°
2026-05-07 00:38 34.01297 -28.72398 36213 ft 454 kts 236°
2026-05-07 00:39 33.96962 -28.77955 36208 ft 454 kts 236°
2026-05-07 00:39 33.92659 -28.83462 36210 ft 453 kts 236°
2026-05-07 00:40 33.88329 -28.88997 36208 ft 455 kts 236°
2026-05-07 00:40 33.83981 -28.94541 36215 ft 454 kts 236°
2026-05-07 00:41 33.79638 -29.00075 36210 ft 455 kts 236°
2026-05-07 00:41 33.75285 -29.05610 36217 ft 455 kts 236°
2026-05-07 00:42 33.70958 -29.11104 36228 ft 456 kts 236°
2026-05-07 00:42 33.66589 -29.16644 36218 ft 457 kts 236°
2026-05-07 00:43 33.62215 -29.22179 36217 ft 457 kts 236°
2026-05-07 00:43 33.57835 -29.27716 36219 ft 458 kts 236°
2026-05-07 00:44 33.53440 -29.33260 36221 ft 459 kts 236°
2026-05-07 00:44 33.49031 -29.38815 36220 ft 460 kts 236°
2026-05-07 00:45 33.44639 -29.44339 36218 ft 461 kts 236°
2026-05-07 00:45 33.40208 -29.49904 36223 ft 462 kts 236°
2026-05-07 00:46 33.35766 -29.55472 36222 ft 462 kts 236°
2026-05-07 00:46 33.31326 -29.61031 36221 ft 462 kts 236°
2026-05-07 00:47 33.26879 -29.66589 36222 ft 463 kts 236°
2026-05-07 00:47 33.22426 -29.72146 36223 ft 463 kts 236°
2026-05-07 00:48 33.17993 -29.77669 36227 ft 463 kts 236°
2026-05-07 00:48 33.13498 -29.83261 36227 ft 464 kts 236°
2026-05-07 00:49 33.09054 -29.88779 36228 ft 464 kts 235°
2026-05-07 00:49 33.04580 -29.94328 36227 ft 464 kts 235°
2026-05-07 00:50 33.00098 -29.99882 36224 ft 464 kts 236°
2026-05-07 00:50 32.95823 -30.05591 36229 ft 463 kts 237°
2026-05-07 00:51 32.91531 -30.11306 36243 ft 463 kts 237°
2026-05-07 00:51 32.87234 -30.17040 36233 ft 463 kts 237°
2026-05-07 00:52 32.82970 -30.22708 36232 ft 463 kts 237°
2026-05-07 00:52 32.78666 -30.28429 36233 ft 464 kts 237°
2026-05-07 00:53 32.74351 -30.34150 36234 ft 465 kts 237°
2026-05-07 00:53 32.70031 -30.39871 36237 ft 465 kts 237°
2026-05-07 00:54 32.65699 -30.45598 36236 ft 466 kts 236°
2026-05-07 00:54 32.61380 -30.51299 36233 ft 467 kts 236°
2026-05-07 00:55 32.57037 -30.57024 36240 ft 467 kts 236°
2026-05-07 00:55 32.52683 -30.62753 36233 ft 468 kts 236°
2026-05-07 00:56 32.48314 -30.68493 36234 ft 469 kts 236°
2026-05-07 00:56 32.43957 -30.74207 36235 ft 469 kts 236°
2026-05-07 00:57 32.39577 -30.79944 36233 ft 469 kts 236°
2026-05-07 00:57 32.35194 -30.85676 36236 ft 469 kts 236°
2026-05-07 00:58 32.30809 -30.91401 36240 ft 469 kts 235°
2026-05-07 00:58 32.26442 -30.97096 36235 ft 470 kts 235°
2026-05-07 00:59 32.19837 -31.05688 36241 ft 470 kts 235°
2026-05-07 01:00 32.15436 -31.11404 36254 ft 471 kts 235°
2026-05-07 01:00 32.11022 -31.17128 36242 ft 472 kts 235°
2026-05-07 01:01 32.06628 -31.22815 36233 ft 472 kts 234°
2026-05-07 01:01 32.02198 -31.28541 36246 ft 471 kts 234°
2026-05-07 01:02 31.97778 -31.34246 36242 ft 472 kts 234°
2026-05-07 01:02 31.93352 -31.39949 36244 ft 471 kts 234°
2026-05-07 01:03 31.88919 -31.45652 36250 ft 471 kts 234°
2026-05-07 01:03 31.84482 -31.51353 36244 ft 472 kts 234°
2026-05-07 01:04 31.80062 -31.57022 36244 ft 473 kts 234°
2026-05-07 01:04 31.75610 -31.62723 36244 ft 473 kts 234°
2026-05-07 01:05 31.71158 -31.68417 36249 ft 472 kts 233°
2026-05-07 01:05 31.66695 -31.74114 36249 ft 472 kts 233°
2026-05-07 01:06 31.62282 -31.79741 36246 ft 471 kts 233°
2026-05-07 01:06 31.57831 -31.85408 36247 ft 472 kts 233°
2026-05-07 01:07 31.53365 -31.91084 36253 ft 473 kts 233°
2026-05-07 01:07 31.48919 -31.96726 36249 ft 474 kts 233°
2026-05-07 01:08 31.45168 -32.01478 36250 ft 474 kts 233°
2026-05-07 01:08 31.40685 -32.07152 36248 ft 474 kts 233°
2026-05-07 01:09 31.36203 -32.12816 36249 ft 474 kts 233°
2026-05-07 01:09 31.31756 -32.18427 36249 ft 473 kts 233°
2026-05-07 01:10 31.27273 -32.24075 36253 ft 473 kts 233°
2026-05-07 01:10 31.22793 -32.29710 36251 ft 474 kts 233°
2026-05-07 01:11 31.18325 -32.35323 36253 ft 474 kts 233°
2026-05-07 01:11 31.13833 -32.40957 36251 ft 474 kts 233°
2026-05-07 01:12 31.09331 -32.46595 36252 ft 474 kts 233°
2026-05-07 01:12 31.04832 -32.52221 36253 ft 474 kts 233°
2026-05-07 01:13 31.00322 -32.57851 36255 ft 475 kts 233°
2026-05-07 01:13 30.95836 -32.63445 36256 ft 475 kts 233°
2026-05-07 01:14 30.91319 -32.69069 36252 ft 475 kts 233°
2026-05-07 01:14 30.86795 -32.74691 36260 ft 475 kts 232°
2026-05-07 01:15 30.82271 -32.80307 36262 ft 476 kts 232°
2026-05-07 01:15 30.77742 -32.85921 36260 ft 476 kts 232°
2026-05-07 01:16 30.73206 -32.91534 36250 ft 476 kts 232°
2026-05-07 01:16 30.68697 -32.97106 36250 ft 477 kts 232°
2026-05-07 01:17 30.64144 -33.02724 36253 ft 477 kts 232°
2026-05-07 01:17 30.59588 -33.08339 36258 ft 477 kts 232°
2026-05-07 01:18 30.55024 -33.13954 36248 ft 478 kts 232°
2026-05-07 01:18 30.50463 -33.19556 36250 ft 477 kts 232°
2026-05-07 01:19 30.45928 -33.25120 36255 ft 477 kts 232°
2026-05-07 01:19 30.41363 -33.30712 36252 ft 478 kts 232°
2026-05-07 01:20 30.36787 -33.36309 36253 ft 478 kts 232°
2026-05-07 01:20 30.32209 -33.41900 36253 ft 478 kts 232°
2026-05-07 01:21 30.27628 -33.47487 36252 ft 478 kts 232°
2026-05-07 01:21 30.23043 -33.53071 36255 ft 478 kts 232°
2026-05-07 01:22 30.18488 -33.58610 36254 ft 477 kts 232°
2026-05-07 01:22 30.13914 -33.64164 36253 ft 477 kts 232°
2026-05-07 01:23 30.09345 -33.69705 36252 ft 476 kts 232°
2026-05-07 01:23 30.04761 -33.75256 36255 ft 477 kts 232°
2026-05-07 01:24 30.00176 -33.80799 36256 ft 477 kts 232°
2026-05-07 01:24 29.95621 -33.86299 36249 ft 477 kts 232°
2026-05-07 01:25 29.91030 -33.91834 36254 ft 478 kts 232°
2026-05-07 01:25 29.86423 -33.97381 36267 ft 479 kts 232°
2026-05-07 01:26 29.81817 -34.02918 36266 ft 479 kts 232°
2026-05-07 01:26 29.77199 -34.08463 36257 ft 480 kts 232°
2026-05-07 01:27 29.72576 -34.14004 36258 ft 479 kts 232°
2026-05-07 01:27 29.67958 -34.19532 36257 ft 479 kts 232°
2026-05-07 01:28 29.63360 -34.25029 36252 ft 479 kts 232°
2026-05-07 01:28 29.58736 -34.30549 36251 ft 479 kts 232°
2026-05-07 01:29 29.54103 -34.36071 36253 ft 480 kts 232°
2026-05-07 01:29 29.49465 -34.41593 36258 ft 480 kts 232°
2026-05-07 01:30 29.44819 -34.47115 36252 ft 480 kts 232°
2026-05-07 01:30 29.40207 -34.52591 36252 ft 480 kts 232°
2026-05-07 01:31 29.35557 -34.58102 36255 ft 480 kts 232°
2026-05-07 01:31 29.30905 -34.63610 36258 ft 480 kts 232°
2026-05-07 01:32 29.26255 -34.69107 36251 ft 481 kts 232°
2026-05-07 01:32 29.21599 -34.74603 36248 ft 481 kts 232°
2026-05-07 01:33 29.16968 -34.80061 36249 ft 480 kts 232°
2026-05-07 01:33 29.12309 -34.85546 36251 ft 480 kts 232°
2026-05-07 01:34 29.07652 -34.91020 36250 ft 480 kts 232°
2026-05-07 01:34 29.03014 -34.96466 36249 ft 480 kts 232°
2026-05-07 01:35 28.98461 -35.02042 36264 ft 477 kts 235°
2026-05-07 01:35 28.94121 -35.07791 36261 ft 478 kts 235°
2026-05-07 01:36 28.89776 -35.13538 36257 ft 478 kts 235°
2026-05-07 01:36 28.85452 -35.19252 36255 ft 478 kts 235°
2026-05-07 01:37 28.81101 -35.24991 36248 ft 478 kts 235°
2026-05-07 01:37 28.76747 -35.30730 36244 ft 478 kts 235°
2026-05-07 01:38 28.72389 -35.36462 36248 ft 478 kts 235°
2026-05-07 01:38 28.68053 -35.42159 36248 ft 478 kts 235°
2026-05-07 01:39 28.63698 -35.47874 36246 ft 477 kts 234°
2026-05-07 01:39 28.59342 -35.53581 36243 ft 478 kts 234°
2026-05-07 01:40 28.54975 -35.59294 36244 ft 478 kts 234°
2026-05-07 01:40 28.50600 -35.65012 36247 ft 478 kts 234°
2026-05-07 01:41 28.46245 -35.70694 36243 ft 479 kts 234°
2026-05-07 01:41 28.41863 -35.76404 36243 ft 479 kts 234°
2026-05-07 01:42 28.37479 -35.82109 36242 ft 479 kts 234°
2026-05-07 01:42 28.33094 -35.87808 36241 ft 480 kts 234°
2026-05-07 01:43 28.28692 -35.93521 36241 ft 480 kts 234°
2026-05-07 01:43 28.24289 -35.99226 36240 ft 480 kts 234°
2026-05-07 01:44 28.19889 -36.04921 36242 ft 479 kts 234°
2026-05-07 01:44 28.15524 -36.10563 36240 ft 479 kts 234°
2026-05-07 01:45 28.11121 -36.16246 36253 ft 480 kts 234°
2026-05-07 01:45 28.06714 -36.21926 36234 ft 479 kts 234°
2026-05-07 01:46 28.02305 -36.27602 36250 ft 480 kts 234°
2026-05-07 01:46 27.97914 -36.33245 36243 ft 480 kts 234°
2026-05-07 01:47 27.93491 -36.38924 36236 ft 481 kts 234°
2026-05-07 01:47 27.89067 -36.44596 36239 ft 481 kts 234°
2026-05-07 01:48 27.84620 -36.50289 36233 ft 482 kts 233°
2026-05-07 01:48 27.80212 -36.55925 36237 ft 482 kts 233°
2026-05-07 01:49 27.75767 -36.61601 36236 ft 482 kts 233°
2026-05-07 01:49 27.71314 -36.67279 36237 ft 483 kts 233°
2026-05-07 01:50 27.66859 -36.72953 36237 ft 483 kts 233°
2026-05-07 01:50 27.62405 -36.78618 36234 ft 483 kts 233°
2026-05-07 01:51 27.57942 -36.84286 36233 ft 483 kts 233°
2026-05-07 01:51 27.53501 -36.89919 36233 ft 484 kts 233°
2026-05-07 01:52 27.49035 -36.95576 36233 ft 483 kts 233°
2026-05-07 01:52 27.44565 -37.01231 36232 ft 483 kts 233°
2026-05-07 01:53 27.40096 -37.06877 36232 ft 483 kts 233°
2026-05-07 01:53 27.35615 -37.12531 36235 ft 483 kts 233°
2026-05-07 01:54 27.31133 -37.18177 36236 ft 483 kts 233°
2026-05-07 01:54 27.26687 -37.23773 36235 ft 483 kts 233°
2026-05-07 01:55 27.22192 -37.29423 36229 ft 484 kts 233°
2026-05-07 01:55 27.17703 -37.35057 36229 ft 483 kts 233°
2026-05-07 01:56 27.13247 -37.40643 36230 ft 483 kts 233°
2026-05-07 01:56 27.08759 -37.46260 36231 ft 482 kts 233°
2026-05-07 01:57 27.04276 -37.51866 36234 ft 482 kts 233°
2026-05-07 01:57 27.00548 -37.56521 36227 ft 483 kts 233°
2026-05-07 01:58 26.96062 -37.62116 36229 ft 482 kts 233°
2026-05-07 01:58 26.91570 -37.67713 36230 ft 483 kts 233°
2026-05-07 01:59 26.87069 -37.73311 36239 ft 484 kts 232°
2026-05-07 01:59 26.82585 -37.78883 36230 ft 484 kts 232°
2026-05-07 02:00 26.78072 -37.84484 36238 ft 484 kts 232°
2026-05-07 02:00 26.73552 -37.90085 36237 ft 485 kts 232°
2026-05-07 02:01 26.69011 -37.95706 36236 ft 485 kts 232°
2026-05-07 02:01 26.64510 -38.01270 36235 ft 485 kts 232°
2026-05-07 02:02 26.59969 -38.06876 36232 ft 485 kts 232°
2026-05-07 02:02 26.55442 -38.12457 36227 ft 485 kts 232°
2026-05-07 02:03 26.50912 -38.18035 36223 ft 484 kts 232°
2026-05-07 02:03 26.46393 -38.23593 36223 ft 483 kts 232°
2026-05-07 02:04 26.41874 -38.29144 36220 ft 483 kts 232°
2026-05-07 02:04 26.37373 -38.34665 36220 ft 484 kts 232°
2026-05-07 02:05 26.32840 -38.40221 36221 ft 484 kts 232°
2026-05-07 02:05 26.28309 -38.45764 36219 ft 484 kts 232°
2026-05-07 02:06 26.23768 -38.51315 36227 ft 485 kts 232°
2026-05-07 02:06 26.19218 -38.56869 36225 ft 485 kts 232°
2026-05-07 02:07 26.14670 -38.62412 36224 ft 484 kts 232°
2026-05-07 02:07 26.07880 -38.70678 36218 ft 483 kts 232°
2026-05-07 02:08 26.03339 -38.76197 36216 ft 484 kts 232°
2026-05-07 02:08 25.98784 -38.81726 36216 ft 485 kts 232°
2026-05-07 02:09 25.94223 -38.87255 36216 ft 485 kts 231°
2026-05-07 02:09 25.89652 -38.92790 36212 ft 485 kts 231°
2026-05-07 02:10 25.85113 -38.98280 36215 ft 486 kts 231°
2026-05-07 02:10 25.80537 -39.03807 36216 ft 486 kts 231°
2026-05-07 02:11 25.75956 -39.09334 36215 ft 486 kts 231°
2026-05-07 02:11 25.71381 -39.14846 36210 ft 486 kts 231°
2026-05-07 02:12 25.66798 -39.20361 36217 ft 486 kts 231°
2026-05-07 02:12 25.62210 -39.25876 36214 ft 487 kts 231°
2026-05-07 02:13 25.57640 -39.31363 36212 ft 487 kts 231°
2026-05-07 02:13 25.53043 -39.36874 36211 ft 487 kts 231°
2026-05-07 02:14 25.48438 -39.42390 36209 ft 487 kts 231°
2026-05-07 02:14 25.43839 -39.47890 36207 ft 487 kts 231°
2026-05-07 02:15 25.39231 -39.53396 36208 ft 487 kts 231°
2026-05-07 02:15 25.34625 -39.58891 36203 ft 487 kts 231°
2026-05-07 02:16 25.30024 -39.64376 36204 ft 486 kts 231°
2026-05-07 02:16 25.25450 -39.69820 36201 ft 486 kts 231°
2026-05-07 02:17 25.20849 -39.75292 36204 ft 486 kts 231°
2026-05-07 02:17 25.16238 -39.80767 36204 ft 486 kts 231°
2026-05-07 02:18 25.11624 -39.86240 36202 ft 487 kts 231°
2026-05-07 02:18 25.07004 -39.91714 36202 ft 488 kts 231°
2026-05-07 02:19 25.02397 -39.97165 36204 ft 488 kts 230°
2026-05-07 02:19 24.97913 -40.02770 36209 ft 486 kts 233°
2026-05-07 02:20 24.93538 -40.08479 36213 ft 487 kts 233°
2026-05-07 02:20 24.89186 -40.14207 36212 ft 487 kts 233°
2026-05-07 02:21 24.84843 -40.19891 36212 ft 487 kts 233°
2026-05-07 02:21 24.80479 -40.25607 36214 ft 487 kts 233°
2026-05-07 02:22 24.76106 -40.31323 36210 ft 487 kts 233°
2026-05-07 02:22 24.71738 -40.37028 36205 ft 488 kts 233°
2026-05-07 02:23 24.67391 -40.42698 36199 ft 488 kts 233°
2026-05-07 02:23 24.63008 -40.48408 36200 ft 488 kts 233°
2026-05-07 02:24 24.58617 -40.54122 36196 ft 488 kts 233°
2026-05-07 02:24 24.54265 -40.59777 36198 ft 487 kts 233°
2026-05-07 02:25 24.49879 -40.65472 36195 ft 487 kts 233°
2026-05-07 02:25 24.45498 -40.71153 36193 ft 488 kts 233°
2026-05-07 02:26 24.41108 -40.76838 36189 ft 488 kts 232°
2026-05-07 02:26 24.36712 -40.82524 36187 ft 487 kts 232°
2026-05-07 02:27 24.32350 -40.88160 36193 ft 487 kts 232°
2026-05-07 02:27 24.27962 -40.93823 36190 ft 487 kts 232°
2026-05-07 02:28 24.23570 -40.99484 36187 ft 487 kts 232°
2026-05-07 02:28 24.19173 -41.05146 36183 ft 487 kts 232°
2026-05-07 02:29 24.14800 -41.10769 36189 ft 487 kts 232°
2026-05-07 02:29 24.10403 -41.16417 36182 ft 486 kts 232°
2026-05-07 02:30 24.06013 -41.22051 36183 ft 486 kts 232°
2026-05-07 02:30 24.01615 -41.27686 36183 ft 487 kts 232°
2026-05-07 02:31 23.97245 -41.33280 36181 ft 487 kts 232°
2026-05-07 02:31 23.92841 -41.38912 36178 ft 487 kts 232°
2026-05-07 02:32 23.88430 -41.44546 36178 ft 487 kts 232°
2026-05-07 02:32 23.84010 -41.50184 36177 ft 488 kts 232°
2026-05-07 02:33 23.79607 -41.55794 36176 ft 488 kts 232°
2026-05-07 02:33 23.75184 -41.61424 36176 ft 488 kts 232°
2026-05-07 02:34 23.70762 -41.67046 36177 ft 488 kts 232°
2026-05-07 02:34 23.66337 -41.72665 36175 ft 488 kts 232°
2026-05-07 02:35 23.61902 -41.78291 36174 ft 488 kts 232°
2026-05-07 02:35 23.57466 -41.83911 36172 ft 489 kts 231°
2026-05-07 02:36 23.53033 -41.89522 36172 ft 489 kts 231°
2026-05-07 02:36 23.48625 -41.95095 36169 ft 489 kts 231°
2026-05-07 02:37 23.44176 -42.00713 36167 ft 489 kts 231°
2026-05-07 02:37 23.39729 -42.06321 36169 ft 489 kts 231°
2026-05-07 02:38 23.35282 -42.11925 36169 ft 489 kts 231°
2026-05-07 02:38 23.30835 -42.17521 36168 ft 489 kts 231°
2026-05-07 02:39 23.26385 -42.23115 36169 ft 489 kts 231°
2026-05-07 02:39 23.21957 -42.28675 36167 ft 489 kts 231°
2026-05-07 02:40 23.17492 -42.34276 36164 ft 489 kts 231°
2026-05-07 02:40 23.13030 -42.39867 36164 ft 489 kts 231°
2026-05-07 02:41 23.08566 -42.45453 36164 ft 489 kts 231°
2026-05-07 02:41 23.04126 -42.51005 36165 ft 489 kts 231°
2026-05-07 02:42 22.99652 -42.56590 36159 ft 489 kts 231°
2026-05-07 02:42 22.95184 -42.62166 36162 ft 489 kts 231°
2026-05-07 02:43 22.90712 -42.67738 36159 ft 489 kts 231°
2026-05-07 02:43 22.86267 -42.73268 36159 ft 489 kts 231°
2026-05-07 02:44 22.81782 -42.78848 36159 ft 489 kts 231°
2026-05-07 02:44 22.77336 -42.84368 36161 ft 489 kts 231°
2026-05-07 02:45 22.72855 -42.89929 36155 ft 489 kts 231°
2026-05-07 02:45 22.68376 -42.95479 36157 ft 489 kts 231°
2026-05-07 02:46 22.63889 -43.01034 36158 ft 489 kts 231°
2026-05-07 02:46 22.59435 -43.06541 36154 ft 489 kts 231°
2026-05-07 02:47 22.55710 -43.11145 36151 ft 489 kts 231°
2026-05-07 02:47 22.51220 -43.16684 36151 ft 489 kts 231°
2026-05-07 02:48 22.46735 -43.22216 36154 ft 489 kts 231°
2026-05-07 02:48 22.42248 -43.27740 36149 ft 489 kts 231°
2026-05-07 02:49 22.37786 -43.33232 36152 ft 488 kts 231°
2026-05-07 02:49 22.33269 -43.38781 36148 ft 489 kts 230°
2026-05-07 02:50 22.28808 -43.44258 36146 ft 489 kts 230°
2026-05-07 02:50 22.24314 -43.49770 36147 ft 489 kts 230°
2026-05-07 02:51 22.19819 -43.55276 36145 ft 488 kts 230°
2026-05-07 02:51 22.15322 -43.60779 36143 ft 488 kts 230°
2026-05-07 02:52 22.10824 -43.66280 36141 ft 488 kts 230°
2026-05-07 02:52 22.06330 -43.71767 36141 ft 488 kts 230°
2026-05-07 02:53 22.01863 -43.77216 36147 ft 488 kts 230°
2026-05-07 02:53 21.97363 -43.82701 36149 ft 488 kts 230°
2026-05-07 02:54 21.92861 -43.88182 36151 ft 488 kts 230°
2026-05-07 02:54 21.88359 -43.93655 36139 ft 488 kts 230°
2026-05-07 02:55 21.83856 -43.99127 36150 ft 488 kts 230°
2026-05-07 02:55 21.79348 -44.04598 36148 ft 488 kts 230°
2026-05-07 02:56 21.74844 -44.10058 36144 ft 488 kts 230°
2026-05-07 02:56 21.70364 -44.15486 36144 ft 488 kts 230°
2026-05-07 02:57 21.65855 -44.20940 36146 ft 488 kts 230°
2026-05-07 02:57 21.61346 -44.26392 36143 ft 487 kts 230°
2026-05-07 02:58 21.56837 -44.31835 36148 ft 487 kts 230°
2026-05-07 02:58 21.52324 -44.37278 36141 ft 487 kts 230°
2026-05-07 02:59 21.47814 -44.42714 36144 ft 487 kts 230°
2026-05-07 02:59 21.43323 -44.48121 36140 ft 487 kts 230°
2026-05-07 03:00 21.38807 -44.53552 36140 ft 487 kts 230°
2026-05-07 03:00 21.34284 -44.58986 36126 ft 487 kts 230°
2026-05-07 03:01 21.29761 -44.64414 36129 ft 488 kts 230°
2026-05-07 03:01 21.25238 -44.69836 36135 ft 488 kts 230°
2026-05-07 03:02 21.20743 -44.75222 36137 ft 488 kts 230°
2026-05-07 03:02 21.16218 -44.80635 36127 ft 488 kts 230°
2026-05-07 03:03 21.11690 -44.86049 36128 ft 488 kts 230°
2026-05-07 03:03 21.07153 -44.91467 36137 ft 488 kts 230°
2026-05-07 03:04 21.02625 -44.96870 36131 ft 487 kts 230°
2026-05-07 03:04 20.97937 -45.02109 36138 ft 487 kts 225°
2026-05-07 03:05 20.93046 -45.07147 36138 ft 488 kts 225°
2026-05-07 03:05 20.88144 -45.12170 36143 ft 488 kts 225°
2026-05-07 03:06 20.83272 -45.17165 36143 ft 488 kts 225°
2026-05-07 03:06 20.78367 -45.22189 36137 ft 488 kts 225°
2026-05-07 03:07 20.73456 -45.27213 36137 ft 488 kts 225°
2026-05-07 03:07 20.68552 -45.32226 36130 ft 488 kts 225°
2026-05-07 03:08 20.63638 -45.37244 36131 ft 488 kts 225°
2026-05-07 03:08 20.58723 -45.42258 36130 ft 488 kts 225°
2026-05-07 03:09 20.53844 -45.47230 36132 ft 488 kts 225°
2026-05-07 03:09 20.48927 -45.52238 36132 ft 488 kts 225°
2026-05-07 03:10 20.44010 -45.57240 36128 ft 488 kts 225°
2026-05-07 03:10 20.39102 -45.62228 36129 ft 487 kts 225°
2026-05-07 03:11 20.34192 -45.67215 36126 ft 487 kts 225°
2026-05-07 03:11 20.29310 -45.72168 36127 ft 487 kts 225°
2026-05-07 03:12 20.24393 -45.77151 36126 ft 487 kts 225°
2026-05-07 03:12 20.19479 -45.82127 36125 ft 487 kts 225°
2026-05-07 03:13 20.14569 -45.87096 36122 ft 486 kts 225°
2026-05-07 03:13 20.09659 -45.92058 36124 ft 486 kts 225°
2026-05-07 03:14 20.04783 -45.96983 36120 ft 487 kts 225°
2026-05-07 03:15 19.97409 -46.04422 36117 ft 486 kts 225°
2026-05-07 03:15 19.92494 -46.09373 36113 ft 486 kts 225°
2026-05-07 03:16 19.87609 -46.14291 36118 ft 487 kts 225°
2026-05-07 03:16 19.82697 -46.19233 36114 ft 487 kts 225°
2026-05-07 03:17 19.77778 -46.24175 36109 ft 486 kts 225°
2026-05-07 03:17 19.72862 -46.29111 36109 ft 486 kts 225°
2026-05-07 03:18 19.67944 -46.34044 36111 ft 486 kts 225°
2026-05-07 03:18 19.63026 -46.38973 36112 ft 486 kts 225°
2026-05-07 03:19 19.58107 -46.43899 36106 ft 486 kts 224°
2026-05-07 03:19 19.53181 -46.48828 36108 ft 486 kts 224°
2026-05-07 03:20 19.48252 -46.53755 36107 ft 486 kts 224°
2026-05-07 03:20 19.43329 -46.58671 36106 ft 486 kts 224°
2026-05-07 03:21 19.38426 -46.63563 36103 ft 486 kts 224°
2026-05-07 03:21 19.33497 -46.68478 36107 ft 486 kts 224°
2026-05-07 03:22 19.28570 -46.73386 36103 ft 486 kts 224°
2026-05-07 03:22 19.23634 -46.78298 36103 ft 486 kts 224°
2026-05-07 03:23 19.18699 -46.83206 36103 ft 486 kts 224°
2026-05-07 03:23 19.13801 -46.88072 36105 ft 486 kts 224°
2026-05-07 03:24 19.08859 -46.92977 36101 ft 486 kts 224°
2026-05-07 03:24 19.03934 -46.97862 36109 ft 485 kts 224°
2026-05-07 03:25 18.99003 -47.02748 36108 ft 486 kts 224°
2026-05-07 03:25 18.94098 -47.07605 36101 ft 486 kts 224°
2026-05-07 03:26 18.89162 -47.12488 36106 ft 486 kts 224°
2026-05-07 03:26 18.84226 -47.17368 36108 ft 486 kts 224°
2026-05-07 03:27 18.79284 -47.22248 36106 ft 486 kts 224°
2026-05-07 03:27 18.74346 -47.27120 36102 ft 486 kts 224°
2026-05-07 03:28 18.69437 -47.31961 36099 ft 486 kts 224°
2026-05-07 03:28 18.64495 -47.36829 36099 ft 486 kts 224°
2026-05-07 03:29 18.59547 -47.41700 36099 ft 486 kts 224°
2026-05-07 03:29 18.54603 -47.46562 36099 ft 485 kts 224°
2026-05-07 03:30 18.49668 -47.51411 36103 ft 485 kts 224°
2026-05-07 03:30 18.44757 -47.56234 36104 ft 485 kts 224°
2026-05-07 03:31 18.39811 -47.61087 36104 ft 485 kts 224°
2026-05-07 03:31 18.34866 -47.65933 36100 ft 485 kts 224°
2026-05-07 03:32 18.29919 -47.70779 36102 ft 485 kts 224°
2026-05-07 03:32 18.24985 -47.75607 36102 ft 484 kts 224°
2026-05-07 03:33 18.20046 -47.80437 36099 ft 484 kts 224°
2026-05-07 03:33 18.15132 -47.85239 36096 ft 485 kts 224°
2026-05-07 03:34 18.10187 -47.90066 36098 ft 485 kts 224°
2026-05-07 03:34 18.05248 -47.94884 36101 ft 484 kts 224°
2026-05-07 03:35 18.01134 -47.98892 36101 ft 485 kts 223°
2026-05-07 03:35 17.95631 -48.02985 36112 ft 486 kts 214°
2026-05-07 03:36 17.89930 -48.06830 36115 ft 486 kts 214°
2026-05-07 03:36 17.84259 -48.10690 36118 ft 485 kts 214°
2026-05-07 03:37 17.78582 -48.14532 36118 ft 486 kts 214°
2026-05-07 03:37 17.72933 -48.18361 36110 ft 487 kts 214°
2026-05-07 03:38 17.67230 -48.22221 36114 ft 487 kts 213°
2026-05-07 03:38 17.61530 -48.26076 36112 ft 487 kts 213°
2026-05-07 03:39 17.55833 -48.29926 36112 ft 487 kts 213°
2026-05-07 03:39 17.50141 -48.33770 36117 ft 487 kts 213°
2026-05-07 03:40 17.44447 -48.37613 36108 ft 486 kts 213°
2026-05-07 03:40 17.38756 -48.41450 36108 ft 486 kts 213°
2026-05-07 03:41 17.33067 -48.45283 36111 ft 486 kts 213°
2026-05-07 03:41 17.27384 -48.49109 36109 ft 486 kts 213°
2026-05-07 03:42 17.21739 -48.52908 36104 ft 485 kts 213°
2026-05-07 03:42 17.16055 -48.56729 36104 ft 485 kts 213°
2026-05-07 03:43 17.10371 -48.60547 36106 ft 485 kts 213°
2026-05-07 03:43 17.04701 -48.64354 36102 ft 485 kts 213°
2026-05-07 03:44 16.99017 -48.68167 36102 ft 485 kts 213°
2026-05-07 03:44 16.93358 -48.71960 36107 ft 486 kts 213°
2026-05-07 03:45 16.87652 -48.75782 36107 ft 486 kts 213°
2026-05-07 03:45 16.81951 -48.79598 36106 ft 485 kts 213°
2026-05-07 03:46 16.76301 -48.83377 36105 ft 485 kts 213°
2026-05-07 03:46 16.70605 -48.87184 36102 ft 485 kts 213°
2026-05-07 03:47 16.64914 -48.90985 36103 ft 486 kts 213°
2026-05-07 03:47 16.59221 -48.94784 36102 ft 486 kts 213°
2026-05-07 03:48 16.53525 -48.98584 36100 ft 486 kts 213°
2026-05-07 03:48 16.47864 -49.02357 36095 ft 485 kts 213°
2026-05-07 03:49 16.42170 -49.06149 36103 ft 485 kts 213°
2026-05-07 03:49 16.36474 -49.09940 36094 ft 486 kts 213°
2026-05-07 03:50 16.30773 -49.13731 36098 ft 486 kts 213°
2026-05-07 03:50 16.25111 -49.17494 36097 ft 486 kts 213°
2026-05-07 03:51 16.19418 -49.21275 36093 ft 485 kts 213°
2026-05-07 03:51 16.13723 -49.25055 36093 ft 485 kts 213°
2026-05-07 03:52 16.08024 -49.28835 36100 ft 485 kts 213°
2026-05-07 03:52 16.02366 -49.32585 36092 ft 484 kts 213°
2026-05-07 03:53 15.96674 -49.36354 36090 ft 484 kts 213°
2026-05-07 03:53 15.90991 -49.40116 36094 ft 484 kts 213°
2026-05-07 03:54 15.85311 -49.43873 36091 ft 484 kts 213°
2026-05-07 03:54 15.79630 -49.47628 36095 ft 483 kts 213°
2026-05-07 03:55 15.73940 -49.51386 36088 ft 484 kts 213°
2026-05-07 03:55 15.68280 -49.55122 36091 ft 485 kts 213°
2026-05-07 03:56 15.62588 -49.58877 36087 ft 484 kts 213°
2026-05-07 03:56 15.56896 -49.62629 36089 ft 485 kts 213°
2026-05-07 03:57 15.51196 -49.66383 36083 ft 485 kts 213°
2026-05-07 03:57 15.45502 -49.70132 36082 ft 484 kts 213°
2026-05-07 03:58 15.39851 -49.73850 36085 ft 484 kts 213°
2026-05-07 03:58 15.34121 -49.77617 36085 ft 485 kts 213°
2026-05-07 03:59 15.28462 -49.81335 36082 ft 484 kts 213°
2026-05-07 03:59 15.22762 -49.85077 36078 ft 484 kts 213°
2026-05-07 04:00 15.17082 -49.88804 36080 ft 483 kts 213°
2026-05-07 04:00 15.11396 -49.92533 36080 ft 483 kts 213°
2026-05-07 04:01 15.05756 -49.96230 36076 ft 482 kts 213°
2026-05-07 04:01 15.00127 -50.00040 36096 ft 481 kts 221°
2026-05-07 04:02 14.95293 -50.04834 36090 ft 482 kts 225°
2026-05-07 04:02 14.90548 -50.09746 36091 ft 482 kts 225°
2026-05-07 04:03 14.85788 -50.14632 36084 ft 482 kts 225°
2026-05-07 04:03 14.81031 -50.19532 36072 ft 483 kts 225°
2026-05-07 04:04 14.76290 -50.24403 36090 ft 483 kts 225°
2026-05-07 04:04 14.71525 -50.29299 36082 ft 482 kts 225°
2026-05-07 04:05 14.66768 -50.34182 36079 ft 481 kts 225°
2026-05-07 04:05 14.62008 -50.39067 36089 ft 482 kts 225°
2026-05-07 04:06 14.57286 -50.43907 36087 ft 482 kts 225°
2026-05-07 04:06 14.52525 -50.48786 36087 ft 482 kts 225°
2026-05-07 04:07 14.47765 -50.53660 36085 ft 482 kts 225°
2026-05-07 04:07 14.43005 -50.58532 36085 ft 481 kts 225°
2026-05-07 04:08 14.38251 -50.63393 36083 ft 481 kts 225°
2026-05-07 04:08 14.33496 -50.68253 36085 ft 481 kts 225°
2026-05-07 04:09 14.28739 -50.73112 36085 ft 481 kts 225°
2026-05-07 04:09 14.24015 -50.77934 36082 ft 481 kts 225°
2026-05-07 04:10 14.19259 -50.82785 36081 ft 480 kts 225°
2026-05-07 04:10 14.14509 -50.87628 36082 ft 480 kts 225°
2026-05-07 04:11 14.09754 -50.92473 36082 ft 480 kts 225°
2026-05-07 04:11 14.04999 -50.97314 36076 ft 480 kts 225°
2026-05-07 04:12 14.00237 -51.02160 36078 ft 481 kts 225°
2026-05-07 04:12 13.95510 -51.06967 36081 ft 480 kts 225°
2026-05-07 04:13 13.90761 -51.11794 36075 ft 479 kts 225°
2026-05-07 04:13 13.86004 -51.16625 36074 ft 480 kts 225°
2026-05-07 04:14 13.81239 -51.21462 36071 ft 479 kts 225°
2026-05-07 04:14 13.76517 -51.26253 36073 ft 479 kts 225°
2026-05-07 04:15 13.71761 -51.31074 36073 ft 479 kts 225°
2026-05-07 04:15 13.67020 -51.35879 36074 ft 478 kts 225°
2026-05-07 04:16 13.62282 -51.40676 36076 ft 478 kts 225°
2026-05-07 04:16 13.57546 -51.45469 36074 ft 478 kts 225°
2026-05-07 04:17 13.52836 -51.50233 36074 ft 478 kts 225°
2026-05-07 04:17 13.48097 -51.55023 36075 ft 478 kts 225°
2026-05-07 04:18 13.43358 -51.59811 36072 ft 477 kts 225°
2026-05-07 04:18 13.38619 -51.64596 36072 ft 477 kts 225°
2026-05-07 04:19 13.33885 -51.69373 36070 ft 476 kts 225°
2026-05-07 04:19 13.29189 -51.74109 36071 ft 476 kts 225°
2026-05-07 04:20 13.24462 -51.78874 36071 ft 475 kts 225°
2026-05-07 04:20 13.19740 -51.83631 36065 ft 475 kts 225°
2026-05-07 04:21 13.12687 -51.90730 36069 ft 475 kts 225°
2026-05-07 04:21 13.07970 -51.95475 36069 ft 475 kts 225°
2026-05-07 04:22 13.03248 -52.00222 36070 ft 475 kts 225°
2026-05-07 04:22 12.99326 -52.04163 36067 ft 475 kts 225°
2026-05-07 04:23 12.93829 -52.09684 36067 ft 476 kts 225°
2026-05-07 04:23 12.89861 -52.13666 36068 ft 476 kts 225°
2026-05-07 04:24 12.85167 -52.18375 36068 ft 475 kts 225°
2026-05-07 04:24 12.80446 -52.23109 36067 ft 474 kts 225°
2026-05-07 04:25 12.75721 -52.27843 36067 ft 474 kts 225°
2026-05-07 04:25 12.71000 -52.32571 36063 ft 474 kts 225°
2026-05-07 04:26 12.66308 -52.37267 36061 ft 474 kts 225°
2026-05-07 04:26 12.61591 -52.41987 36064 ft 474 kts 225°
2026-05-07 04:27 12.56869 -52.46708 36058 ft 474 kts 225°
2026-05-07 04:27 12.52141 -52.51432 36063 ft 474 kts 225°
2026-05-07 04:28 12.47419 -52.56149 36059 ft 474 kts 225°
2026-05-07 04:28 12.42693 -52.60868 36058 ft 474 kts 225°
2026-05-07 04:29 12.38001 -52.65548 36055 ft 474 kts 225°
2026-05-07 04:29 12.33284 -52.70252 36056 ft 474 kts 225°
2026-05-07 04:30 12.28564 -52.74956 36058 ft 474 kts 225°
2026-05-07 04:30 12.23836 -52.79667 36056 ft 474 kts 225°
2026-05-07 04:31 12.19104 -52.84377 36055 ft 474 kts 225°
2026-05-07 04:31 12.14375 -52.89083 36054 ft 474 kts 225°
2026-05-07 04:32 12.09678 -52.93755 36053 ft 474 kts 225°
2026-05-07 04:32 12.04941 -52.98464 36053 ft 475 kts 225°
2026-05-07 04:33 12.00192 -53.03182 36055 ft 475 kts 225°
2026-05-07 04:33 11.95476 -53.07865 36057 ft 475 kts 225°
2026-05-07 04:34 11.90718 -53.12588 36055 ft 475 kts 225°
2026-05-07 04:34 11.85977 -53.17291 36056 ft 475 kts 225°
2026-05-07 04:35 11.81242 -53.21985 36051 ft 474 kts 225°
2026-05-07 04:35 11.76513 -53.26672 36053 ft 474 kts 225°
2026-05-07 04:36 11.71806 -53.31334 36047 ft 474 kts 225°
2026-05-07 04:36 11.67068 -53.36025 36049 ft 474 kts 225°
2026-05-07 04:37 11.62333 -53.40709 36051 ft 474 kts 225°
2026-05-07 04:37 11.57595 -53.45396 36051 ft 474 kts 225°
2026-05-07 04:38 11.52883 -53.50053 36051 ft 474 kts 225°
2026-05-07 04:38 11.48141 -53.54739 36049 ft 474 kts 225°
2026-05-07 04:39 11.43402 -53.59419 36048 ft 474 kts 225°
2026-05-07 04:39 11.38665 -53.64095 36049 ft 474 kts 225°
2026-05-07 04:40 11.33947 -53.68749 36048 ft 474 kts 225°
2026-05-07 04:40 11.29204 -53.73426 36050 ft 475 kts 225°
2026-05-07 04:41 11.24463 -53.78099 36051 ft 474 kts 225°
2026-05-07 04:41 11.19719 -53.82773 36049 ft 474 kts 225°
2026-05-07 04:42 11.14966 -53.87453 36042 ft 475 kts 225°
2026-05-07 04:42 11.10238 -53.92107 36041 ft 475 kts 225°
2026-05-07 04:43 11.05477 -53.96789 36041 ft 475 kts 225°
2026-05-07 04:43 11.00718 -54.01469 36043 ft 475 kts 225°
2026-05-07 04:44 10.95966 -54.06139 36043 ft 475 kts 225°
2026-05-07 04:44 10.91213 -54.10808 36040 ft 475 kts 225°
2026-05-07 04:45 10.86460 -54.15475 36040 ft 475 kts 225°
2026-05-07 04:45 10.81733 -54.20114 36039 ft 475 kts 225°
2026-05-07 04:46 10.76978 -54.24779 36036 ft 474 kts 225°
2026-05-07 04:46 10.72220 -54.29444 36039 ft 474 kts 225°
2026-05-07 04:47 10.67470 -54.34099 36037 ft 474 kts 225°
2026-05-07 04:47 10.62715 -54.38757 36037 ft 475 kts 225°
2026-05-07 04:48 10.57952 -54.43421 36037 ft 476 kts 225°
2026-05-07 04:48 10.53181 -54.48090 36035 ft 475 kts 225°
2026-05-07 04:49 10.48446 -54.52723 36040 ft 475 kts 225°
2026-05-07 04:49 10.43675 -54.57387 36038 ft 476 kts 225°
2026-05-07 04:50 10.38911 -54.62044 36040 ft 475 kts 225°
2026-05-07 04:50 10.34141 -54.66704 36038 ft 476 kts 225°
2026-05-07 04:51 10.29364 -54.71368 36031 ft 476 kts 225°
2026-05-07 04:51 10.24630 -54.75990 36031 ft 475 kts 225°
2026-05-07 04:52 10.19850 -54.80654 36032 ft 475 kts 225°
2026-05-07 04:52 10.15087 -54.85299 36028 ft 474 kts 224°
2026-05-07 04:53 10.10351 -54.89915 36031 ft 474 kts 224°
2026-05-07 04:53 10.05587 -54.94557 36029 ft 475 kts 224°
2026-05-07 04:54 10.00828 -54.99193 36029 ft 474 kts 224°
2026-05-07 04:54 9.96293 -55.04047 36031 ft 474 kts 227°
2026-05-07 04:55 9.91775 -55.08932 36030 ft 474 kts 227°
2026-05-07 04:55 9.87288 -55.13824 36028 ft 473 kts 227°
2026-05-07 04:56 9.82790 -55.18702 36027 ft 474 kts 227°
2026-05-07 04:56 9.78309 -55.23571 36031 ft 474 kts 227°
2026-05-07 04:57 9.73792 -55.28472 36031 ft 474 kts 227°
2026-05-07 04:57 9.69295 -55.33351 36028 ft 473 kts 227°
2026-05-07 04:58 9.64818 -55.38205 36027 ft 474 kts 227°
2026-05-07 04:58 9.60313 -55.43088 36029 ft 474 kts 227°
2026-05-07 04:59 9.55808 -55.47970 36032 ft 475 kts 227°
2026-05-07 04:59 9.51287 -55.52866 36030 ft 475 kts 227°
2026-05-07 05:00 9.46770 -55.57756 36032 ft 474 kts 227°
2026-05-07 05:00 9.42292 -55.62602 36029 ft 474 kts 227°
2026-05-07 05:01 9.37786 -55.67476 36027 ft 473 kts 227°
2026-05-07 05:01 9.33284 -55.72345 36028 ft 473 kts 227°
2026-05-07 05:02 9.28774 -55.77219 36027 ft 473 kts 227°
2026-05-07 05:02 9.24298 -55.82055 36028 ft 474 kts 227°
2026-05-07 05:03 9.19789 -55.86924 36027 ft 474 kts 227°
2026-05-07 05:03 9.15274 -55.91798 36024 ft 474 kts 227°
2026-05-07 05:04 9.10763 -55.96666 36025 ft 474 kts 227°
2026-05-07 05:04 9.06018 -56.01285 36018 ft 474 kts 222°
2026-05-07 05:05 9.01056 -56.05686 36024 ft 474 kts 222°
2026-05-07 05:05 8.96096 -56.10045 36018 ft 475 kts 222°
2026-05-07 05:06 8.91109 -56.14444 36017 ft 475 kts 222°
2026-05-07 05:06 8.86120 -56.18836 36018 ft 475 kts 222°
2026-05-07 05:07 8.81151 -56.23211 36016 ft 476 kts 222°
2026-05-07 05:07 8.76158 -56.27605 36016 ft 476 kts 222°
2026-05-07 05:08 8.71167 -56.31996 36018 ft 476 kts 222°
2026-05-07 05:08 8.66174 -56.36386 36016 ft 476 kts 222°
2026-05-07 05:09 8.61175 -56.40780 36016 ft 476 kts 222°
2026-05-07 05:09 8.56182 -56.45169 36016 ft 476 kts 222°
2026-05-07 05:10 8.51184 -56.49558 36014 ft 476 kts 222°
2026-05-07 05:10 8.46218 -56.53919 36012 ft 475 kts 222°
2026-05-07 05:11 8.41224 -56.58303 36010 ft 475 kts 222°
2026-05-07 05:11 8.36239 -56.62678 36008 ft 475 kts 222°
2026-05-07 05:12 8.31242 -56.67061 36007 ft 475 kts 222°
2026-05-07 05:12 8.26286 -56.71407 36009 ft 474 kts 222°
2026-05-07 05:13 8.21298 -56.75779 36006 ft 474 kts 222°
2026-05-07 05:13 8.17147 -56.79416 36005 ft 474 kts 222°
2026-05-07 05:14 8.12161 -56.83785 36006 ft 475 kts 222°
2026-05-07 05:14 8.07160 -56.88164 36007 ft 476 kts 221°
2026-05-07 05:15 8.02145 -56.92554 36010 ft 477 kts 221°
2026-05-07 05:15 7.97134 -56.96939 36007 ft 477 kts 221°
2026-05-07 05:16 7.92126 -57.01320 36006 ft 477 kts 221°
2026-05-07 05:16 7.87140 -57.05682 36005 ft 477 kts 221°
2026-05-07 05:17 7.82120 -57.10071 36006 ft 477 kts 221°
2026-05-07 05:17 7.77101 -57.14458 36006 ft 477 kts 221°
2026-05-07 05:18 7.72074 -57.18850 36006 ft 478 kts 221°
2026-05-07 05:18 7.67052 -57.23237 36006 ft 478 kts 221°
2026-05-07 05:19 7.62024 -57.27628 36004 ft 478 kts 221°
2026-05-07 05:19 7.56989 -57.32023 36002 ft 479 kts 221°
2026-05-07 05:20 7.51985 -57.36390 36002 ft 479 kts 221°
2026-05-07 05:20 7.46933 -57.40797 36004 ft 479 kts 221°
2026-05-07 05:21 7.39366 -57.47396 36003 ft 479 kts 221°
2026-05-07 05:22 7.34319 -57.51796 36004 ft 479 kts 222°
2026-05-07 05:22 7.29293 -57.56218 36001 ft 480 kts 222°
2026-05-07 05:23 7.24288 -57.60609 35999 ft 480 kts 222°
2026-05-07 05:23 7.19256 -57.65026 36000 ft 480 kts 222°
2026-05-07 05:24 7.14222 -57.69443 36001 ft 480 kts 222°
2026-05-07 05:24 7.09185 -57.73861 36003 ft 479 kts 222°
2026-05-07 05:25 7.04156 -57.78270 36000 ft 479 kts 222°
2026-05-07 05:25 6.99134 -57.82672 36001 ft 479 kts 222°
2026-05-07 05:26 6.94104 -57.87081 35999 ft 479 kts 222°
2026-05-07 05:26 6.89101 -57.91463 35999 ft 479 kts 222°
2026-05-07 05:27 6.84061 -57.95877 35997 ft 480 kts 222°
2026-05-07 05:27 6.79016 -58.00295 35999 ft 481 kts 222°
2026-05-07 05:28 6.73963 -58.04718 36004 ft 481 kts 222°
2026-05-07 05:28 6.68949 -58.09105 36012 ft 480 kts 222°
2026-05-07 05:29 6.63900 -58.13522 36016 ft 480 kts 222°
2026-05-07 05:29 6.58869 -58.17922 36019 ft 479 kts 222°
2026-05-07 05:30 6.53826 -58.22330 36016 ft 480 kts 222°
2026-05-07 05:30 6.48809 -58.26781 36025 ft 480 kts 225°
2026-05-07 05:31 6.43925 -58.31386 36032 ft 481 kts 224°
2026-05-07 05:31 6.39074 -58.35965 36026 ft 481 kts 224°
2026-05-07 05:32 6.34190 -58.40581 36016 ft 481 kts 224°
2026-05-07 05:32 6.29303 -58.45187 36008 ft 481 kts 224°
2026-05-07 05:33 6.24425 -58.49793 36004 ft 481 kts 224°
2026-05-07 05:33 6.19563 -58.54377 36006 ft 482 kts 224°
2026-05-07 05:34 6.14668 -58.58994 36007 ft 483 kts 224°
2026-05-07 05:34 6.09772 -58.63608 36005 ft 482 kts 224°
2026-05-07 05:35 6.04888 -58.68231 36009 ft 482 kts 225°
2026-05-07 05:35 6.00058 -58.72907 36008 ft 483 kts 225°
2026-05-07 05:36 5.95194 -58.77558 36009 ft 482 kts 225°
2026-05-07 05:36 5.90346 -58.82223 36008 ft 482 kts 225°
2026-05-07 05:37 5.85519 -58.86851 36009 ft 483 kts 225°
2026-05-07 05:37 5.80652 -58.91523 36010 ft 483 kts 225°
2026-05-07 05:38 5.75794 -58.96183 36009 ft 482 kts 225°
2026-05-07 05:38 5.70939 -59.00840 36009 ft 482 kts 225°
2026-05-07 05:39 5.66088 -59.05491 36018 ft 482 kts 225°
2026-05-07 05:39 5.61230 -59.10148 36018 ft 483 kts 225°
2026-05-07 05:40 5.56395 -59.14782 36018 ft 484 kts 225°
2026-05-07 05:40 5.51528 -59.19444 36019 ft 483 kts 225°
2026-05-07 05:41 5.46665 -59.24103 36016 ft 482 kts 225°
2026-05-07 05:41 5.41808 -59.28755 36021 ft 481 kts 225°
2026-05-07 05:42 5.36960 -59.33398 36021 ft 481 kts 225°
2026-05-07 05:42 5.32136 -59.38015 36025 ft 482 kts 225°
2026-05-07 05:43 5.27268 -59.42673 36032 ft 482 kts 224°
2026-05-07 05:43 5.22410 -59.47322 36034 ft 483 kts 224°
2026-05-07 05:44 5.17553 -59.51986 36041 ft 484 kts 225°
2026-05-07 05:44 5.12710 -59.56635 36045 ft 485 kts 225°
2026-05-07 05:45 5.07831 -59.61316 36049 ft 484 kts 225°
2026-05-07 05:45 5.02973 -59.65977 36046 ft 483 kts 225°
2026-05-07 05:46 4.98111 -59.70641 36046 ft 483 kts 225°
2026-05-07 05:46 4.93249 -59.75303 36045 ft 482 kts 225°
2026-05-07 05:47 4.88399 -59.79953 36043 ft 481 kts 225°
2026-05-07 05:47 4.83560 -59.84592 36041 ft 481 kts 225°
2026-05-07 05:48 4.78752 -59.89200 36037 ft 481 kts 225°
2026-05-07 05:48 4.73908 -59.93841 36032 ft 480 kts 225°
2026-05-07 05:49 4.69075 -59.98471 36027 ft 481 kts 225°
2026-05-07 05:49 4.64235 -60.03107 36023 ft 481 kts 225°
2026-05-07 05:50 4.59386 -60.07750 36016 ft 482 kts 224°
2026-05-07 05:50 4.54562 -60.12369 36015 ft 482 kts 224°
2026-05-07 05:51 4.49745 -60.17036 36006 ft 481 kts 225°
2026-05-07 05:51 4.44950 -60.21721 36002 ft 481 kts 225°
2026-05-07 05:52 4.40137 -60.26392 35997 ft 480 kts 225°
2026-05-07 05:52 4.35369 -60.31038 35990 ft 481 kts 225°
2026-05-07 05:53 4.30555 -60.35716 35987 ft 482 kts 225°
2026-05-07 05:53 4.25730 -60.40412 35984 ft 482 kts 225°
2026-05-07 05:54 4.20924 -60.45083 35976 ft 483 kts 225°
2026-05-07 05:54 4.16101 -60.49772 35971 ft 483 kts 225°
2026-05-07 05:55 4.11271 -60.54466 35966 ft 484 kts 225°
2026-05-07 05:55 4.06441 -60.59161 35965 ft 483 kts 225°
2026-05-07 05:56 4.01615 -60.63850 35960 ft 483 kts 225°
2026-05-07 05:56 3.96786 -60.68541 35959 ft 484 kts 225°
2026-05-07 05:57 3.91946 -60.73243 35957 ft 484 kts 225°
2026-05-07 05:57 3.87131 -60.77918 35956 ft 485 kts 225°
2026-05-07 05:58 3.82334 -60.82677 35958 ft 485 kts 226°
2026-05-07 05:58 3.77554 -60.87432 35954 ft 483 kts 225°
2026-05-07 05:59 3.73579 -60.91367 35954 ft 482 kts 225°
2026-05-07 05:59 3.68821 -60.96102 35951 ft 481 kts 225°
2026-05-07 06:00 3.63258 -61.01571 35952 ft 483 kts 224°
2026-05-07 06:00 3.59192 -61.05427 35954 ft 484 kts 224°
2026-05-07 06:01 3.54340 -61.10122 35958 ft 485 kts 224°
2026-05-07 06:01 3.49454 -61.14808 35964 ft 486 kts 224°
2026-05-07 06:02 3.44587 -61.19493 35963 ft 484 kts 224°
2026-05-07 06:02 3.39760 -61.24132 35959 ft 483 kts 224°
2026-05-07 06:03 3.34918 -61.28787 35955 ft 482 kts 224°
2026-05-07 06:03 3.30080 -61.33437 35958 ft 482 kts 224°
2026-05-07 06:04 3.25231 -61.38097 35959 ft 484 kts 224°
2026-05-07 06:04 3.20369 -61.42768 35960 ft 485 kts 224°
2026-05-07 06:05 3.15502 -61.47444 35959 ft 485 kts 224°
2026-05-07 06:05 3.10634 -61.52120 35960 ft 484 kts 224°
2026-05-07 06:06 3.05804 -61.56759 35965 ft 484 kts 224°
2026-05-07 06:06 3.00944 -61.61426 35962 ft 483 kts 224°
2026-05-07 06:07 2.96092 -61.66085 35963 ft 483 kts 224°
2026-05-07 06:07 2.91243 -61.70740 35963 ft 482 kts 224°
2026-05-07 06:08 2.86397 -61.75393 35960 ft 481 kts 224°
2026-05-07 06:08 2.81594 -61.80007 35964 ft 482 kts 224°
2026-05-07 06:09 2.76744 -61.84663 35969 ft 484 kts 224°
2026-05-07 06:09 2.71877 -61.89335 35971 ft 484 kts 224°
2026-05-07 06:10 2.67017 -61.94000 35972 ft 484 kts 224°
2026-05-07 06:10 2.62158 -61.98663 35970 ft 484 kts 224°
2026-05-07 06:11 2.57331 -62.03295 35972 ft 483 kts 224°
2026-05-07 06:11 2.52478 -62.07952 35972 ft 483 kts 224°
2026-05-07 06:12 2.47630 -62.12603 35970 ft 482 kts 224°
2026-05-07 06:12 2.42786 -62.17250 35968 ft 482 kts 224°
2026-05-07 06:13 2.37978 -62.21861 35968 ft 481 kts 224°
2026-05-07 06:13 2.33147 -62.26494 35966 ft 481 kts 224°
2026-05-07 06:14 2.28293 -62.31148 35966 ft 482 kts 224°
2026-05-07 06:14 2.23452 -62.35780 35966 ft 482 kts 224°
2026-05-07 06:15 2.18618 -62.40417 35965 ft 481 kts 224°
2026-05-07 06:15 2.13813 -62.45070 35964 ft 481 kts 224°
2026-05-07 06:16 2.09023 -62.49685 35966 ft 481 kts 224°
2026-05-07 06:16 2.04197 -62.54346 35964 ft 482 kts 224°
2026-05-07 06:17 1.99364 -62.59008 35961 ft 482 kts 224°
2026-05-07 06:17 1.94561 -62.63643 35963 ft 483 kts 224°
2026-05-07 06:18 1.89716 -62.68316 35969 ft 483 kts 224°
2026-05-07 06:18 1.84891 -62.72971 35968 ft 481 kts 224°
2026-05-07 06:19 1.80070 -62.77621 35965 ft 481 kts 224°
2026-05-07 06:19 1.75252 -62.82269 35962 ft 481 kts 224°
2026-05-07 06:20 1.70462 -62.86889 35963 ft 481 kts 224°
2026-05-07 06:20 1.65636 -62.91543 35965 ft 481 kts 224°
2026-05-07 06:21 1.60804 -62.96202 35961 ft 482 kts 224°
2026-05-07 06:21 1.55978 -63.00856 35963 ft 482 kts 224°
2026-05-07 06:22 1.51189 -63.05473 35961 ft 480 kts 224°
2026-05-07 06:22 1.43988 -63.12415 35957 ft 479 kts 224°
2026-05-07 06:23 1.39183 -63.17048 35956 ft 479 kts 224°
2026-05-07 06:23 1.34377 -63.21680 35959 ft 480 kts 224°
2026-05-07 06:24 1.29557 -63.26327 35967 ft 481 kts 224°
2026-05-07 06:24 1.24765 -63.30946 35971 ft 481 kts 224°
2026-05-07 06:25 1.19942 -63.35594 35971 ft 481 kts 224°
2026-05-07 06:25 1.15152 -63.40258 35972 ft 480 kts 225°
2026-05-07 06:26 1.10364 -63.44919 35977 ft 479 kts 225°
2026-05-07 06:26 1.05575 -63.49577 35974 ft 480 kts 225°
2026-05-07 06:27 1.00815 -63.54200 35975 ft 480 kts 224°
2026-05-07 06:27 0.96006 -63.58832 35975 ft 480 kts 224°
2026-05-07 06:28 0.91214 -63.63469 35967 ft 479 kts 224°
2026-05-07 06:28 0.86412 -63.68103 35967 ft 481 kts 224°
2026-05-07 06:29 0.81523 -63.72828 36215 ft 492 kts 224°
2026-05-07 06:29 0.79068 -63.75199 36700 ft 490 kts 225°
2026-05-07 06:29 0.76653 -63.77531 37169 ft 487 kts 225°
2026-05-07 06:30 0.74223 -63.79879 37637 ft 485 kts 225°
2026-05-07 06:30 0.71798 -63.82221 38085 ft 484 kts 225°
2026-05-07 06:30 0.69378 -63.84559 38535 ft 482 kts 225°
2026-05-07 06:30 0.66958 -63.86895 38925 ft 480 kts 225°
2026-05-07 06:31 0.64568 -63.89203 39299 ft 478 kts 225°
2026-05-07 06:31 0.62183 -63.91508 39673 ft 476 kts 225°
2026-05-07 06:31 0.59809 -63.93801 40030 ft 474 kts 225°
2026-05-07 06:31 0.57441 -63.96088 40393 ft 472 kts 225°
2026-05-07 06:32 0.55086 -63.98362 40737 ft 470 kts 225°
2026-05-07 06:32 0.52736 -64.00632 40969 ft 471 kts 226°
2026-05-07 06:32 0.47987 -64.05219 40953 ft 473 kts 226°
2026-05-07 06:33 0.43308 -64.09737 40948 ft 469 kts 226°
2026-05-07 06:33 0.38618 -64.14267 40952 ft 468 kts 226°
2026-05-07 06:34 0.33932 -64.18792 40951 ft 468 kts 226°
2026-05-07 06:34 0.29277 -64.23287 40955 ft 468 kts 226°
2026-05-07 06:35 0.24600 -64.27804 40959 ft 467 kts 226°
2026-05-07 06:35 0.19924 -64.32319 40956 ft 468 kts 226°
2026-05-07 06:36 0.15246 -64.36838 40954 ft 467 kts 226°
2026-05-07 06:36 0.10569 -64.41353 40957 ft 467 kts 226°
2026-05-07 06:37 0.05895 -64.45881 40956 ft 468 kts 226°
2026-05-07 06:37 0.01274 -64.50464 40957 ft 468 kts 226°
2026-05-07 06:38 -0.03376 -64.55024 40959 ft 468 kts 226°
2026-05-07 06:38 -0.07978 -64.59561 40958 ft 467 kts 226°
2026-05-07 06:39 -0.12604 -64.64110 40955 ft 467 kts 226°
2026-05-07 06:39 -0.17237 -64.68672 40955 ft 467 kts 226°
2026-05-07 06:40 -0.21841 -64.73203 40957 ft 467 kts 226°
2026-05-07 06:40 -0.26467 -64.77755 40955 ft 466 kts 226°
2026-05-07 06:41 -0.31098 -64.82314 40955 ft 466 kts 226°
2026-05-07 06:41 -0.35734 -64.86876 40957 ft 467 kts 226°
2026-05-07 06:42 -0.40373 -64.91442 40962 ft 468 kts 226°
2026-05-07 06:42 -0.45008 -64.96004 40960 ft 468 kts 226°
2026-05-07 06:43 -0.49639 -65.00563 40961 ft 467 kts 226°
2026-05-07 06:43 -0.54235 -65.05087 40964 ft 466 kts 226°
2026-05-07 06:44 -0.58866 -65.09645 40965 ft 467 kts 226°
2026-05-07 06:44 -0.63496 -65.14203 40968 ft 467 kts 226°
2026-05-07 06:45 -0.68130 -65.18765 40969 ft 467 kts 226°
2026-05-07 06:45 -0.72757 -65.23318 40973 ft 466 kts 226°
2026-05-07 06:46 -0.77371 -65.27860 40969 ft 465 kts 226°
2026-05-07 06:46 -0.81978 -65.32395 40975 ft 465 kts 226°
2026-05-07 06:47 -0.86394 -65.37051 40961 ft 464 kts 230°
2026-05-07 06:47 -0.90699 -65.41861 40970 ft 464 kts 230°
2026-05-07 06:48 -0.94254 -65.45856 40971 ft 463 kts 230°
2026-05-07 06:48 -0.98542 -65.50667 40970 ft 462 kts 230°
2026-05-07 06:49 -1.02816 -65.55468 40971 ft 462 kts 230°
2026-05-07 06:49 -1.07089 -65.60270 40971 ft 463 kts 230°
2026-05-07 06:50 -1.11348 -65.65053 40973 ft 463 kts 230°
2026-05-07 06:50 -1.15630 -65.69865 40971 ft 463 kts 230°
2026-05-07 06:51 -1.19913 -65.74677 40971 ft 463 kts 230°
2026-05-07 06:51 -1.24197 -65.79491 40970 ft 463 kts 230°
2026-05-07 06:52 -1.28485 -65.84309 40972 ft 464 kts 230°
2026-05-07 06:52 -1.32788 -65.89145 40976 ft 465 kts 230°
2026-05-07 06:53 -1.37057 -65.93942 40976 ft 464 kts 230°
2026-05-07 06:53 -1.41352 -65.98770 40972 ft 465 kts 230°
2026-05-07 06:54 -1.45657 -66.03609 40974 ft 465 kts 230°
2026-05-07 06:54 -1.49928 -66.08408 40971 ft 464 kts 230°
2026-05-07 06:55 -1.54225 -66.13239 40970 ft 463 kts 230°
2026-05-07 06:55 -1.58507 -66.18053 40970 ft 462 kts 230°
2026-05-07 06:56 -1.62780 -66.22857 40966 ft 463 kts 230°
2026-05-07 06:56 -1.67060 -66.27669 40971 ft 463 kts 230°
2026-05-07 06:57 -1.71321 -66.32460 40972 ft 464 kts 230°
2026-05-07 06:57 -1.75625 -66.37300 40978 ft 465 kts 230°
2026-05-07 06:58 -1.79918 -66.42128 40975 ft 464 kts 230°
2026-05-07 06:58 -1.84208 -66.46953 40978 ft 464 kts 230°
2026-05-07 06:59 -1.88740 -66.51555 40988 ft 467 kts 218°
2026-05-07 06:59 -1.94532 -66.54552 40974 ft 474 kts 198°
2026-05-07 07:00 -2.01032 -66.55842 40979 ft 476 kts 192°
2026-05-07 07:00 -2.07520 -66.56924 40978 ft 475 kts 192°
2026-05-07 07:01 -2.14019 -66.58032 40975 ft 473 kts 192°
2026-05-07 07:01 -2.20511 -66.59130 40973 ft 473 kts 192°
2026-05-07 07:02 -2.27009 -66.60232 40976 ft 473 kts 192°
2026-05-07 07:02 -2.33518 -66.61335 40973 ft 475 kts 192°
2026-05-07 07:03 -2.40003 -66.62434 40976 ft 476 kts 192°
2026-05-07 07:03 -2.46541 -66.63542 40976 ft 475 kts 192°
2026-05-07 07:04 -2.53066 -66.64648 40971 ft 474 kts 192°
2026-05-07 07:04 -2.59570 -66.65751 40966 ft 473 kts 193°
2026-05-07 07:05 -2.66017 -66.66843 40962 ft 472 kts 193°
2026-05-07 07:05 -2.72496 -66.67941 40964 ft 472 kts 193°
2026-05-07 07:06 -2.78976 -66.69038 40968 ft 472 kts 193°
2026-05-07 07:06 -2.85461 -66.70137 40971 ft 473 kts 192°
2026-05-07 07:07 -2.91957 -66.71237 40975 ft 473 kts 192°
2026-05-07 07:07 -2.98461 -66.72339 40973 ft 474 kts 192°
2026-05-07 07:08 -3.04941 -66.73438 40976 ft 474 kts 192°
2026-05-07 07:08 -3.11469 -66.74544 40974 ft 474 kts 192°
2026-05-07 07:09 -3.17962 -66.75644 40971 ft 473 kts 192°
2026-05-07 07:09 -3.24450 -66.76745 40968 ft 473 kts 192°
2026-05-07 07:10 -3.30941 -66.77845 40966 ft 473 kts 192°
2026-05-07 07:10 -3.37408 -66.78942 40963 ft 474 kts 192°
2026-05-07 07:11 -3.43916 -66.80046 40962 ft 475 kts 192°
2026-05-07 07:11 -3.50436 -66.81151 40967 ft 476 kts 192°
2026-05-07 07:12 -3.56983 -66.82262 40968 ft 477 kts 192°
2026-05-07 07:12 -3.63495 -66.83371 40973 ft 477 kts 192°
2026-05-07 07:13 -3.70033 -66.84482 40974 ft 476 kts 192°
2026-05-07 07:13 -3.76566 -66.85593 40968 ft 476 kts 192°
2026-05-07 07:14 -3.83114 -66.86704 40972 ft 476 kts 192°
2026-05-07 07:14 -3.89670 -66.87818 40972 ft 477 kts 192°
2026-05-07 07:15 -3.96222 -66.88931 40974 ft 477 kts 192°
2026-05-07 07:15 -4.02717 -66.90035 40979 ft 476 kts 192°
2026-05-07 07:16 -4.09254 -66.91147 40976 ft 476 kts 192°
2026-05-07 07:16 -4.15785 -66.92257 40972 ft 476 kts 192°
2026-05-07 07:17 -4.22313 -66.93368 40973 ft 476 kts 191°
2026-05-07 07:17 -4.28850 -66.94480 40972 ft 476 kts 191°
2026-05-07 07:18 -4.35342 -66.95584 40974 ft 475 kts 191°
2026-05-07 07:18 -4.41851 -66.96692 40969 ft 474 kts 192°
2026-05-07 07:19 -4.48362 -66.97800 40967 ft 473 kts 192°
2026-05-07 07:19 -4.54862 -66.98907 40964 ft 473 kts 192°
2026-05-07 07:20 -4.61310 -67.00005 40963 ft 473 kts 192°
2026-05-07 07:20 -4.67814 -67.01112 40964 ft 474 kts 192°
2026-05-07 07:21 -4.74320 -67.02221 40965 ft 473 kts 192°
2026-05-07 07:21 -4.80775 -67.03320 40959 ft 473 kts 192°
2026-05-07 07:22 -4.87265 -67.04426 40960 ft 473 kts 192°
2026-05-07 07:22 -4.93758 -67.05533 40960 ft 474 kts 192°
2026-05-07 07:23 -5.00269 -67.06643 40963 ft 474 kts 192°
2026-05-07 07:23 -5.06786 -67.07754 40966 ft 474 kts 192°
2026-05-07 07:24 -5.13295 -67.08864 40964 ft 473 kts 192°
2026-05-07 07:24 -5.19745 -67.09964 40961 ft 473 kts 192°
2026-05-07 07:25 -5.29486 -67.11626 40959 ft 473 kts 192°
2026-05-07 07:26 -5.35995 -67.12737 40960 ft 475 kts 192°
2026-05-07 07:26 -5.42535 -67.13853 40961 ft 476 kts 192°
2026-05-07 07:27 -5.49027 -67.14962 40965 ft 476 kts 192°
2026-05-07 07:27 -5.55569 -67.16079 40966 ft 476 kts 192°
2026-05-07 07:28 -5.62106 -67.17196 40968 ft 476 kts 192°
2026-05-07 07:28 -5.68635 -67.18310 40966 ft 475 kts 192°
2026-05-07 07:29 -5.75153 -67.19423 40962 ft 475 kts 192°
2026-05-07 07:29 -5.81616 -67.20527 40962 ft 474 kts 192°
2026-05-07 07:30 -5.88126 -67.21640 40957 ft 474 kts 192°
2026-05-07 07:30 -5.94649 -67.22754 40960 ft 475 kts 192°
2026-05-07 07:31 -6.01141 -67.23864 40963 ft 476 kts 192°
2026-05-07 07:31 -6.07679 -67.24982 40966 ft 475 kts 192°
2026-05-07 07:32 -6.14202 -67.26097 40967 ft 475 kts 192°
2026-05-07 07:32 -6.20713 -67.27211 40965 ft 474 kts 192°
2026-05-07 07:33 -6.27222 -67.28325 40962 ft 474 kts 192°
2026-05-07 07:33 -6.33684 -67.29431 40960 ft 474 kts 192°
2026-05-07 07:34 -6.40195 -67.30546 40963 ft 475 kts 192°
2026-05-07 07:34 -6.46725 -67.31664 40966 ft 476 kts 192°
2026-05-07 07:35 -6.53258 -67.32783 40969 ft 476 kts 192°
2026-05-07 07:35 -6.59791 -67.33902 40964 ft 476 kts 192°
2026-05-07 07:36 -6.66318 -67.35021 40964 ft 475 kts 192°
2026-05-07 07:36 -6.71733 -67.35949 40963 ft 475 kts 192°
2026-05-07 07:37 -6.79299 -67.37247 40961 ft 474 kts 192°
2026-05-07 07:37 -6.84744 -67.38180 40956 ft 474 kts 192°
2026-05-07 07:38 -6.91222 -67.39292 40957 ft 476 kts 191°
2026-05-07 07:38 -6.97756 -67.40413 40958 ft 476 kts 191°
2026-05-07 07:39 -7.04293 -67.41535 40960 ft 476 kts 191°
2026-05-07 07:39 -7.10832 -67.42659 40961 ft 476 kts 191°
2026-05-07 07:40 -7.17358 -67.43780 40960 ft 475 kts 191°
2026-05-07 07:40 -7.23885 -67.44902 40961 ft 476 kts 191°
2026-05-07 07:41 -7.30424 -67.46027 40961 ft 477 kts 192°
2026-05-07 07:41 -7.36941 -67.47147 40961 ft 478 kts 192°
2026-05-07 07:42 -7.43520 -67.48280 40964 ft 479 kts 192°
2026-05-07 07:42 -7.50083 -67.49409 40965 ft 478 kts 192°
2026-05-07 07:43 -7.56636 -67.50537 40965 ft 477 kts 192°
2026-05-07 07:43 -7.63133 -67.51656 40963 ft 476 kts 192°
2026-05-07 07:44 -7.69653 -67.52779 40958 ft 475 kts 192°
2026-05-07 07:44 -7.76182 -67.53904 40957 ft 475 kts 192°
2026-05-07 07:45 -7.82702 -67.55028 40957 ft 475 kts 192°
2026-05-07 07:45 -7.89229 -67.56154 40956 ft 475 kts 192°
2026-05-07 07:46 -7.95719 -67.57273 40958 ft 475 kts 192°
2026-05-07 07:46 -8.02240 -67.58398 40956 ft 475 kts 192°
2026-05-07 07:47 -8.08760 -67.59523 40959 ft 474 kts 192°
2026-05-07 07:47 -8.15237 -67.60642 40960 ft 475 kts 192°
2026-05-07 07:48 -8.21767 -67.61769 40959 ft 476 kts 192°
2026-05-07 07:48 -8.28314 -67.62901 40963 ft 477 kts 192°
2026-05-07 07:49 -8.34837 -67.64028 40967 ft 477 kts 192°
2026-05-07 07:49 -8.41379 -67.65159 40967 ft 476 kts 192°
2026-05-07 07:50 -8.47913 -67.66289 40970 ft 476 kts 192°
2026-05-07 07:50 -8.54432 -67.67417 40964 ft 475 kts 192°
2026-05-07 07:51 -8.60899 -67.68536 40960 ft 474 kts 192°
2026-05-07 07:51 -8.67411 -67.69663 40961 ft 474 kts 192°
2026-05-07 07:52 -8.73932 -67.70792 40962 ft 475 kts 192°
2026-05-07 07:52 -8.80457 -67.71923 40963 ft 476 kts 192°
2026-05-07 07:53 -8.86985 -67.73054 40964 ft 475 kts 192°
2026-05-07 07:53 -8.93456 -67.74176 40964 ft 475 kts 192°
2026-05-07 07:54 -8.99962 -67.75304 40963 ft 474 kts 192°
2026-05-07 07:54 -9.06472 -67.76434 40962 ft 474 kts 192°
2026-05-07 07:55 -9.12985 -67.77564 40963 ft 475 kts 192°
2026-05-07 07:55 -9.19477 -67.78691 40968 ft 476 kts 192°
2026-05-07 07:56 -9.26023 -67.79827 40962 ft 477 kts 192°
2026-05-07 07:56 -9.32566 -67.80964 40963 ft 477 kts 192°
2026-05-07 07:57 -9.39122 -67.82102 40962 ft 477 kts 192°
2026-05-07 07:57 -9.45636 -67.83235 40957 ft 476 kts 192°
2026-05-07 07:58 -9.52174 -67.84371 40952 ft 476 kts 192°
2026-05-07 07:58 -9.58718 -67.85510 40953 ft 478 kts 192°
2026-05-07 07:59 -9.65289 -67.86653 40954 ft 480 kts 192°
2026-05-07 07:59 -9.71882 -67.87800 40956 ft 481 kts 192°
2026-05-07 08:00 -9.78494 -67.88952 40959 ft 481 kts 192°
2026-05-07 08:00 -9.85053 -67.90094 40955 ft 480 kts 192°
2026-05-07 08:01 -9.91719 -67.90680 40950 ft 482 kts 185°
2026-05-07 08:01 -9.98428 -67.90942 40956 ft 482 kts 185°
2026-05-07 08:02 -10.05146 -67.91181 40956 ft 482 kts 185°
2026-05-07 08:02 -10.11814 -67.91431 40954 ft 481 kts 185°
2026-05-07 08:03 -10.18519 -67.91676 40960 ft 481 kts 185°
2026-05-07 08:03 -10.25212 -67.91924 40955 ft 481 kts 185°
2026-05-07 08:04 -10.31920 -67.92171 40956 ft 483 kts 185°
2026-05-07 08:04 -10.38610 -67.92418 40956 ft 484 kts 185°
2026-05-07 08:05 -10.45362 -67.92668 40953 ft 485 kts 185°
2026-05-07 08:05 -10.52107 -67.92917 40953 ft 484 kts 185°
2026-05-07 08:06 -10.58799 -67.93164 40944 ft 484 kts 185°
2026-05-07 08:06 -10.65522 -67.93414 40945 ft 483 kts 185°
2026-05-07 08:07 -10.72223 -67.93776 40946 ft 481 kts 186°
2026-05-07 08:07 -10.78915 -67.94109 40941 ft 480 kts 185°
2026-05-07 08:08 -10.85594 -67.94450 40937 ft 481 kts 186°
2026-05-07 08:08 -10.92291 -67.94792 40939 ft 481 kts 186°
2026-05-07 08:09 -10.98945 -67.95130 40943 ft 482 kts 186°
2026-05-07 08:09 -11.05650 -67.95473 40947 ft 483 kts 186°
2026-05-07 08:10 -11.12369 -67.95814 40951 ft 483 kts 186°
2026-05-07 08:10 -11.19095 -67.96158 40945 ft 483 kts 186°
2026-05-07 08:11 -11.25801 -67.96499 40943 ft 482 kts 186°
2026-05-07 08:11 -11.32457 -67.96839 40940 ft 481 kts 186°
2026-05-07 08:12 -11.39146 -67.97181 40938 ft 481 kts 186°
2026-05-07 08:12 -11.45834 -67.97522 40940 ft 481 kts 186°
2026-05-07 08:13 -11.52525 -67.97864 40937 ft 481 kts 186°
2026-05-07 08:13 -11.59207 -67.98206 40938 ft 481 kts 186°
2026-05-07 08:14 -11.65891 -67.98548 40937 ft 480 kts 186°
2026-05-07 08:14 -11.72571 -67.98890 40935 ft 481 kts 186°
2026-05-07 08:15 -11.79221 -67.99231 40933 ft 481 kts 186°
2026-05-07 08:15 -11.85907 -67.99573 40936 ft 481 kts 186°
2026-05-07 08:16 -11.92602 -67.99916 40936 ft 482 kts 186°
2026-05-07 08:16 -11.99301 -68.00260 40934 ft 483 kts 186°
2026-05-07 08:17 -12.06022 -68.00605 40934 ft 483 kts 186°
2026-05-07 08:17 -12.12751 -68.00950 40934 ft 484 kts 186°
2026-05-07 08:18 -12.19484 -68.01291 40927 ft 484 kts 186°
2026-05-07 08:18 -12.26216 -68.01632 40924 ft 483 kts 186°
2026-05-07 08:19 -12.32889 -68.01971 40922 ft 483 kts 186°
2026-05-07 08:19 -12.39621 -68.02313 40918 ft 484 kts 186°
2026-05-07 08:20 -12.46358 -68.02655 40920 ft 485 kts 186°
2026-05-07 08:20 -12.53114 -68.02997 40923 ft 485 kts 186°
2026-05-07 08:21 -12.59859 -68.03340 40922 ft 484 kts 186°
2026-05-07 08:21 -12.66543 -68.03680 40917 ft 483 kts 186°
2026-05-07 08:22 -12.73252 -68.04022 40917 ft 482 kts 186°
2026-05-07 08:22 -12.79965 -68.04363 40909 ft 481 kts 186°
2026-05-07 08:23 -12.86648 -68.04704 40905 ft 481 kts 186°
2026-05-07 08:23 -12.93298 -68.05043 40906 ft 482 kts 186°
2026-05-07 08:24 -13.00003 -68.05384 40910 ft 483 kts 186°
2026-05-07 08:24 -13.06723 -68.05727 40914 ft 483 kts 186°
2026-05-07 08:25 -13.13464 -68.06071 40918 ft 483 kts 186°
2026-05-07 08:25 -13.20186 -68.06414 40916 ft 483 kts 186°
2026-05-07 08:26 -13.30219 -68.06927 40915 ft 483 kts 186°
2026-05-07 08:26 -13.36924 -68.07270 40910 ft 482 kts 186°
2026-05-07 08:27 -13.43620 -68.07612 40902 ft 481 kts 186°
2026-05-07 08:27 -13.49179 -68.07897 40903 ft 481 kts 186°
2026-05-07 08:28 -13.56983 -68.08297 40909 ft 484 kts 186°
2026-05-07 08:28 -13.62632 -68.08586 40919 ft 486 kts 186°
2026-05-07 08:29 -13.69344 -68.08930 40914 ft 484 kts 186°
2026-05-07 08:29 -13.76067 -68.09275 40916 ft 483 kts 186°
2026-05-07 08:30 -13.82805 -68.09621 40918 ft 485 kts 186°
2026-05-07 08:30 -13.89580 -68.09969 40925 ft 487 kts 186°
2026-05-07 08:31 -13.96314 -68.10315 40931 ft 487 kts 186°
2026-05-07 08:31 -14.03080 -68.10663 40934 ft 486 kts 187°
2026-05-07 08:32 -14.09825 -68.11010 40943 ft 485 kts 187°
2026-05-07 08:32 -14.16562 -68.11357 40948 ft 484 kts 187°
2026-05-07 08:33 -14.23290 -68.11704 40948 ft 484 kts 187°
2026-05-07 08:33 -14.29985 -68.12048 40961 ft 485 kts 187°
2026-05-07 08:34 -14.36759 -68.12390 40971 ft 485 kts 187°
2026-05-07 08:34 -14.43447 -68.12730 40977 ft 484 kts 187°
2026-05-07 08:35 -14.50201 -68.13074 40976 ft 485 kts 187°
2026-05-07 08:35 -14.56956 -68.13417 40978 ft 485 kts 187°
2026-05-07 08:36 -14.63706 -68.13762 40970 ft 485 kts 187°
2026-05-07 08:36 -14.70458 -68.14105 40985 ft 485 kts 187°
2026-05-07 08:37 -14.77173 -68.14448 40985 ft 486 kts 187°
2026-05-07 08:37 -14.83925 -68.14792 40986 ft 486 kts 187°
2026-05-07 08:38 -14.90673 -68.15137 40984 ft 486 kts 187°
2026-05-07 08:38 -14.97427 -68.15482 40982 ft 486 kts 187°
2026-05-07 08:39 -15.04203 -68.15828 40984 ft 486 kts 187°
2026-05-07 08:39 -15.10904 -68.16170 40980 ft 485 kts 187°
2026-05-07 08:40 -15.17652 -68.16516 40980 ft 485 kts 187°
2026-05-07 08:40 -15.24408 -68.16862 40980 ft 485 kts 187°
2026-05-07 08:41 -15.31143 -68.17207 40976 ft 484 kts 187°
2026-05-07 08:41 -15.37883 -68.17553 40984 ft 485 kts 187°
2026-05-07 08:42 -15.44590 -68.17897 40987 ft 486 kts 187°
2026-05-07 08:42 -15.51358 -68.18244 40997 ft 485 kts 187°
2026-05-07 08:43 -15.58113 -68.18591 41004 ft 486 kts 187°
2026-05-07 08:43 -15.64871 -68.18938 41025 ft 486 kts 187°
2026-05-07 08:44 -15.71640 -68.19285 41041 ft 486 kts 187°
2026-05-07 08:44 -15.78361 -68.19630 41055 ft 486 kts 187°
2026-05-07 08:45 -15.85126 -68.19976 41066 ft 486 kts 188°
2026-05-07 08:45 -15.91877 -68.20324 41091 ft 486 kts 188°
2026-05-07 08:46 -15.98638 -68.20671 41106 ft 487 kts 187°
2026-05-07 08:46 -16.05393 -68.21018 41133 ft 486 kts 188°
2026-05-07 08:47 -16.12169 -68.21365 41137 ft 486 kts 187°
2026-05-07 08:47 -16.18886 -68.21701 41233 ft 485 kts 188°
2026-05-07 08:48 -16.25659 -68.22043 41346 ft 485 kts 187°
2026-05-07 08:48 -16.32401 -68.22383 41479 ft 485 kts 188°
2026-05-07 08:49 -16.39154 -68.22725 41605 ft 485 kts 187°
2026-05-07 08:49 -16.45679 -68.23054 41672 ft 485 kts 188°
2026-05-07 08:50 -16.52202 -68.23436 41675 ft 482 kts 192°
2026-05-07 08:50 -16.58881 -68.24163 41671 ft 484 kts 191°
2026-05-07 08:51 -16.65538 -68.24872 41560 ft 484 kts 191°
2026-05-07 08:51 -16.72236 -68.25600 41433 ft 484 kts 191°
2026-05-07 08:52 -16.78937 -68.26318 41305 ft 484 kts 191°
2026-05-07 08:52 -16.85643 -68.27044 41177 ft 485 kts 191°
2026-05-07 08:53 -16.92365 -68.27767 41164 ft 485 kts 191°
2026-05-07 08:53 -16.99090 -68.28495 41164 ft 485 kts 191°
2026-05-07 08:54 -17.05768 -68.29215 41171 ft 485 kts 191°
2026-05-07 08:54 -17.12489 -68.29943 41169 ft 486 kts 191°
2026-05-07 08:55 -17.19213 -68.30670 41174 ft 486 kts 191°
2026-05-07 08:55 -17.25955 -68.31401 41174 ft 486 kts 191°
2026-05-07 08:56 -17.32686 -68.32130 41180 ft 486 kts 191°
2026-05-07 08:56 -17.39418 -68.32861 41180 ft 486 kts 191°
2026-05-07 08:57 -17.46151 -68.33589 41182 ft 486 kts 191°
2026-05-07 08:57 -17.52890 -68.34310 41187 ft 487 kts 192°
2026-05-07 08:58 -17.59602 -68.35033 41186 ft 488 kts 192°
2026-05-07 08:58 -17.66354 -68.35758 41187 ft 488 kts 192°
2026-05-07 08:59 -17.73109 -68.36486 41181 ft 488 kts 192°
2026-05-07 08:59 -17.79865 -68.37213 41179 ft 488 kts 192°
2026-05-07 09:00 -17.86620 -68.37942 41174 ft 487 kts 192°
2026-05-07 09:00 -17.93362 -68.38669 41161 ft 487 kts 192°
2026-05-07 09:01 -18.00109 -68.39398 41155 ft 486 kts 192°
2026-05-07 09:01 -18.06842 -68.40124 41171 ft 487 kts 192°
2026-05-07 09:02 -18.13595 -68.40838 41156 ft 487 kts 192°
2026-05-07 09:02 -18.20295 -68.41554 41155 ft 487 kts 192°
2026-05-07 09:03 -18.27035 -68.42271 41160 ft 487 kts 192°
2026-05-07 09:03 -18.33777 -68.42990 41160 ft 486 kts 192°
2026-05-07 09:04 -18.40504 -68.43709 41155 ft 486 kts 192°
2026-05-07 09:04 -18.47248 -68.44429 41150 ft 487 kts 192°
2026-05-07 09:05 -18.54000 -68.45151 41154 ft 488 kts 192°
2026-05-07 09:05 -18.60775 -68.45876 41149 ft 489 kts 192°
2026-05-07 09:06 -18.67498 -68.46596 41153 ft 489 kts 192°
2026-05-07 09:06 -18.74273 -68.47322 41151 ft 489 kts 192°
2026-05-07 09:07 -18.81030 -68.48047 41143 ft 488 kts 192°
2026-05-07 09:07 -18.87787 -68.48772 41151 ft 487 kts 192°
2026-05-07 09:08 -18.94535 -68.49497 41152 ft 488 kts 192°
2026-05-07 09:08 -19.01301 -68.50225 41154 ft 489 kts 192°
2026-05-07 09:09 -19.08047 -68.50951 41156 ft 490 kts 193°
2026-05-07 09:09 -19.14829 -68.51681 41151 ft 486 kts 193°
2026-05-07 09:10 -19.21558 -68.52407 41149 ft 488 kts 193°
2026-05-07 09:10 -19.28329 -68.53137 41152 ft 489 kts 193°
2026-05-07 09:11 -19.35104 -68.53868 41153 ft 488 kts 193°
2026-05-07 09:11 -19.41822 -68.54594 41158 ft 488 kts 193°
2026-05-07 09:12 -19.48571 -68.55325 41158 ft 487 kts 193°
2026-05-07 09:12 -19.55310 -68.56053 41165 ft 487 kts 193°
2026-05-07 09:13 -19.62059 -68.56785 41168 ft 488 kts 193°
2026-05-07 09:13 -19.68791 -68.57513 41174 ft 486 kts 193°
2026-05-07 09:14 -19.75486 -68.58243 41175 ft 487 kts 193°
2026-05-07 09:14 -19.82244 -68.58975 41189 ft 487 kts 193°
2026-05-07 09:15 -19.87837 -68.59582 41178 ft 487 kts 193°
2026-05-07 09:15 -19.94591 -68.60319 41182 ft 488 kts 193°
2026-05-07 09:16 -20.01354 -68.61053 41189 ft 488 kts 193°
2026-05-07 09:16 -20.08150 -68.61797 41188 ft 492 kts 193°
2026-05-07 09:17 -20.14944 -68.62533 41191 ft 490 kts 193°
2026-05-07 09:17 -20.21735 -68.63278 41192 ft 490 kts 194°
2026-05-07 09:18 -20.28484 -68.64014 41194 ft 490 kts 193°
2026-05-07 09:18 -20.35271 -68.64757 41187 ft 491 kts 193°
2026-05-07 09:19 -20.42093 -68.65502 41192 ft 491 kts 194°
2026-05-07 09:19 -20.48893 -68.66247 41190 ft 491 kts 194°
2026-05-07 09:20 -20.55694 -68.66982 41187 ft 491 kts 194°
2026-05-07 09:20 -20.62455 -68.67682 41188 ft 491 kts 194°
2026-05-07 09:21 -20.69274 -68.68409 41186 ft 492 kts 194°
2026-05-07 09:21 -20.76087 -68.69125 41191 ft 492 kts 194°
2026-05-07 09:22 -20.82890 -68.69847 41188 ft 492 kts 194°
2026-05-07 09:22 -20.89719 -68.70568 41188 ft 493 kts 194°
2026-05-07 09:23 -20.96536 -68.71289 41183 ft 491 kts 194°
2026-05-07 09:23 -21.03343 -68.72014 41188 ft 493 kts 194°
2026-05-07 09:24 -21.10127 -68.72731 41186 ft 493 kts 194°
2026-05-07 09:24 -21.16966 -68.73458 41184 ft 493 kts 194°
2026-05-07 09:25 -21.23793 -68.74177 41179 ft 492 kts 195°
2026-05-07 09:25 -21.30599 -68.74890 41162 ft 492 kts 195°
2026-05-07 09:26 -21.37426 -68.75608 41167 ft 493 kts 195°
2026-05-07 09:26 -21.44237 -68.76323 41165 ft 492 kts 195°
2026-05-07 09:27 -21.51067 -68.77043 41164 ft 493 kts 195°
2026-05-07 09:28 -21.61273 -68.78118 41161 ft 493 kts 195°
2026-05-07 09:28 -21.68110 -68.78840 41150 ft 493 kts 195°
2026-05-07 09:29 -21.74947 -68.79562 41145 ft 493 kts 195°
2026-05-07 09:29 -21.81739 -68.80280 41140 ft 493 kts 195°
2026-05-07 09:30 -21.88577 -68.81003 41114 ft 493 kts 195°
2026-05-07 09:30 -21.95399 -68.81725 41121 ft 492 kts 196°
2026-05-07 09:31 -22.02202 -68.82448 41109 ft 492 kts 195°
2026-05-07 09:31 -22.09013 -68.83169 41107 ft 491 kts 196°
2026-05-07 09:32 -22.15837 -68.83897 41112 ft 494 kts 196°
2026-05-07 09:32 -22.22667 -68.84619 41174 ft 492 kts 196°
2026-05-07 09:33 -22.29440 -68.85343 41232 ft 491 kts 196°
2026-05-07 09:33 -22.36241 -68.86066 41309 ft 491 kts 196°
2026-05-07 09:34 -22.43047 -68.86793 41360 ft 491 kts 196°
2026-05-07 09:34 -22.49825 -68.87431 41363 ft 498 kts 189°
2026-05-07 09:35 -22.56833 -68.86829 41357 ft 508 kts 184°
2026-05-07 09:35 -22.63876 -68.86058 41305 ft 508 kts 184°
2026-05-07 09:36 -22.70917 -68.85285 41236 ft 508 kts 185°
2026-05-07 09:36 -22.77952 -68.84514 41168 ft 508 kts 185°
2026-05-07 09:37 -22.84980 -68.83740 41104 ft 507 kts 185°
2026-05-07 09:37 -22.91951 -68.82974 41098 ft 507 kts 185°
2026-05-07 09:38 -22.98978 -68.82200 41103 ft 507 kts 185°
2026-05-07 09:38 -23.06002 -68.81426 41079 ft 507 kts 185°
2026-05-07 09:39 -23.13025 -68.80714 41115 ft 500 kts 191°
2026-05-07 09:39 -23.16456 -68.80887 41122 ft 486 kts 199°
2026-05-07 09:39 -23.19780 -68.81431 41102 ft 484 kts 200°
2026-05-07 09:40 -23.26430 -68.82585 41101 ft 484 kts 201°
2026-05-07 09:40 -23.33038 -68.83732 41102 ft 483 kts 200°
2026-05-07 09:41 -23.39672 -68.84884 41097 ft 482 kts 201°
2026-05-07 09:41 -23.46306 -68.86047 41099 ft 483 kts 201°
2026-05-07 09:42 -23.52938 -68.87203 41098 ft 482 kts 201°
2026-05-07 09:42 -23.59540 -68.88360 41097 ft 481 kts 201°
2026-05-07 09:43 -23.66152 -68.89518 41106 ft 481 kts 201°
2026-05-07 09:43 -23.72767 -68.90677 41102 ft 482 kts 201°
2026-05-07 09:44 -23.79385 -68.91839 41106 ft 481 kts 201°
2026-05-07 09:44 -23.86005 -68.93002 41112 ft 481 kts 201°
2026-05-07 09:45 -23.92578 -68.94158 41113 ft 479 kts 201°
2026-05-07 09:45 -23.99162 -68.95318 41119 ft 479 kts 201°
2026-05-07 09:46 -24.05745 -68.96477 41125 ft 479 kts 201°
2026-05-07 09:46 -24.12328 -68.97639 41129 ft 479 kts 201°
2026-05-07 09:47 -24.18858 -68.98792 41134 ft 478 kts 201°
2026-05-07 09:47 -24.25418 -68.99952 41136 ft 477 kts 201°
2026-05-07 09:48 -24.31981 -69.01114 41150 ft 477 kts 201°
2026-05-07 09:48 -24.38538 -69.02274 41151 ft 476 kts 201°
2026-05-07 09:49 -24.45073 -69.03434 41162 ft 475 kts 201°
2026-05-07 09:49 -24.51610 -69.04596 41155 ft 477 kts 201°
2026-05-07 09:50 -24.58123 -69.05752 41173 ft 476 kts 201°
2026-05-07 09:50 -24.64668 -69.06917 41172 ft 475 kts 201°
2026-05-07 09:51 -24.71200 -69.08080 41182 ft 474 kts 201°
2026-05-07 09:51 -24.77647 -69.09305 41197 ft 465 kts 207°
2026-05-07 09:51 -24.80685 -69.10354 41195 ft 453 kts 213°
2026-05-07 09:52 -24.83647 -69.11584 41200 ft 455 kts 212°
2026-05-07 09:52 -24.89586 -69.14035 41199 ft 456 kts 212°
2026-05-07 09:53 -24.95517 -69.16498 41204 ft 454 kts 212°
2026-05-07 09:53 -25.01407 -69.18942 41201 ft 455 kts 212°
2026-05-07 09:54 -25.07341 -69.21408 41190 ft 455 kts 212°
2026-05-07 09:54 -25.13257 -69.23869 41202 ft 454 kts 212°
2026-05-07 09:55 -25.19178 -69.26335 41188 ft 454 kts 212°
2026-05-07 09:55 -25.25082 -69.28795 41194 ft 453 kts 212°
2026-05-07 09:56 -25.30984 -69.31261 41186 ft 453 kts 212°
2026-05-07 09:56 -25.36844 -69.33706 41175 ft 452 kts 212°
2026-05-07 09:57 -25.42720 -69.36164 41166 ft 450 kts 212°
2026-05-07 09:57 -25.48589 -69.38623 41157 ft 452 kts 212°
2026-05-07 09:58 -25.54476 -69.41088 41157 ft 452 kts 212°
2026-05-07 09:58 -25.60429 -69.43358 41150 ft 455 kts 210°
2026-05-07 09:59 -25.66420 -69.45616 41140 ft 454 kts 210°
2026-05-07 09:59 -25.72408 -69.47865 41137 ft 454 kts 210°
2026-05-07 10:00 -25.78390 -69.50118 41136 ft 453 kts 210°
2026-05-07 10:00 -25.84366 -69.52371 41129 ft 454 kts 209°
2026-05-07 10:01 -25.90344 -69.54626 41130 ft 453 kts 209°
2026-05-07 10:01 -25.96302 -69.56875 41116 ft 451 kts 209°
2026-05-07 10:02 -26.02236 -69.59120 41113 ft 450 kts 209°
2026-05-07 10:02 -26.08172 -69.61368 41114 ft 451 kts 209°
2026-05-07 10:03 -26.14076 -69.63604 41113 ft 450 kts 209°
2026-05-07 10:03 -26.20013 -69.65858 41104 ft 451 kts 209°
2026-05-07 10:04 -26.25962 -69.68116 41115 ft 451 kts 209°
2026-05-07 10:04 -26.31899 -69.70373 41105 ft 450 kts 209°
2026-05-07 10:05 -26.37766 -69.72604 41112 ft 446 kts 209°
2026-05-07 10:05 -26.43625 -69.74839 41116 ft 444 kts 209°
2026-05-07 10:06 -26.49491 -69.77076 41113 ft 446 kts 209°
2026-05-07 10:06 -26.54371 -69.78939 41111 ft 446 kts 209°
2026-05-07 10:07 -26.60256 -69.81187 41109 ft 446 kts 209°
2026-05-07 10:07 -26.66123 -69.83432 41113 ft 446 kts 209°
2026-05-07 10:08 -26.71992 -69.85680 41103 ft 446 kts 209°
2026-05-07 10:08 -26.77865 -69.87931 41108 ft 446 kts 209°
2026-05-07 10:09 -26.83739 -69.90186 41095 ft 446 kts 209°
2026-05-07 10:09 -26.89578 -69.92429 41097 ft 446 kts 209°
2026-05-07 10:10 -26.95457 -69.94692 41097 ft 447 kts 209°
2026-05-07 10:10 -27.01337 -69.96954 41096 ft 445 kts 209°
2026-05-07 10:11 -27.07196 -69.99214 41092 ft 444 kts 209°
2026-05-07 10:11 -27.13012 -70.01459 41092 ft 443 kts 209°
2026-05-07 10:12 -27.18848 -70.03713 41098 ft 443 kts 209°
2026-05-07 10:12 -27.24677 -70.05968 41099 ft 442 kts 209°
2026-05-07 10:13 -27.30511 -70.08198 41102 ft 443 kts 208°
2026-05-07 10:13 -27.36325 -70.10360 41098 ft 442 kts 208°
2026-05-07 10:14 -27.42157 -70.12569 41098 ft 443 kts 208°
2026-05-07 10:14 -27.48007 -70.14766 41102 ft 443 kts 208°
2026-05-07 10:15 -27.53857 -70.16977 41093 ft 444 kts 208°
2026-05-07 10:15 -27.59719 -70.19189 41098 ft 443 kts 208°
2026-05-07 10:16 -27.65569 -70.21403 41102 ft 444 kts 209°
2026-05-07 10:16 -27.71383 -70.23603 41100 ft 443 kts 209°
2026-05-07 10:17 -27.77250 -70.25826 41104 ft 444 kts 209°
2026-05-07 10:17 -27.83116 -70.28052 41109 ft 445 kts 209°
2026-05-07 10:18 -27.88983 -70.30280 41106 ft 445 kts 209°
2026-05-07 10:18 -27.94858 -70.32514 41105 ft 445 kts 209°
2026-05-07 10:19 -28.00744 -70.34756 41107 ft 446 kts 209°
2026-05-07 10:19 -28.06628 -70.36997 41101 ft 446 kts 209°
2026-05-07 10:20 -28.12533 -70.39253 41102 ft 448 kts 208°
2026-05-07 10:20 -28.18458 -70.41515 41108 ft 449 kts 208°
2026-05-07 10:21 -28.24352 -70.43770 41112 ft 450 kts 208°
2026-05-07 10:21 -28.30295 -70.46045 41112 ft 450 kts 208°
2026-05-07 10:22 -28.36224 -70.48318 41113 ft 450 kts 208°
2026-05-07 10:22 -28.42144 -70.50592 41112 ft 449 kts 208°
2026-05-07 10:23 -28.48060 -70.52849 41118 ft 450 kts 206°
2026-05-07 10:23 -28.51155 -70.53642 41130 ft 461 kts 198°
2026-05-07 10:23 -28.54385 -70.54010 41117 ft 468 kts 195°
2026-05-07 10:24 -28.60873 -70.54632 41112 ft 468 kts 195°
2026-05-07 10:24 -28.67353 -70.55230 41122 ft 467 kts 195°
2026-05-07 10:25 -28.73832 -70.55842 41124 ft 467 kts 195°
2026-05-07 10:25 -28.80311 -70.56447 41126 ft 466 kts 195°
2026-05-07 10:26 -28.86758 -70.57054 41131 ft 465 kts 195°
2026-05-07 10:26 -28.93215 -70.57663 41137 ft 466 kts 195°
2026-05-07 10:27 -28.99638 -70.58284 41124 ft 466 kts 195°
2026-05-07 10:27 -29.06086 -70.58907 41146 ft 465 kts 195°
2026-05-07 10:28 -29.12559 -70.59535 41152 ft 468 kts 195°
2026-05-07 10:28 -29.19074 -70.60164 41162 ft 468 kts 195°
2026-05-07 10:29 -29.25540 -70.60789 41155 ft 465 kts 195°
2026-05-07 10:29 -29.31984 -70.61421 41169 ft 468 kts 195°
2026-05-07 10:30 -29.41733 -70.62365 41160 ft 469 kts 195°
2026-05-07 10:30 -29.48238 -70.62999 41165 ft 469 kts 196°
2026-05-07 10:31 -29.54639 -70.63621 41195 ft 448 kts 193°
2026-05-07 10:31 -29.57698 -70.63910 41174 ft 433 kts 193°
2026-05-07 10:31 -29.60650 -70.64201 41162 ft 420 kts 193°
2026-05-07 10:32 -29.66426 -70.64783 41165 ft 423 kts 193°
2026-05-07 10:32 -29.72354 -70.65355 41182 ft 430 kts 193°
2026-05-07 10:33 -29.78311 -70.65940 41170 ft 429 kts 192°
2026-05-07 10:33 -29.84245 -70.66522 41183 ft 427 kts 193°
2026-05-07 10:34 -29.90169 -70.67105 41181 ft 426 kts 193°
2026-05-07 10:34 -29.96087 -70.67686 41171 ft 427 kts 192°
2026-05-07 10:35 -30.02016 -70.68271 41181 ft 427 kts 192°
2026-05-07 10:35 -30.07887 -70.68849 41182 ft 426 kts 192°
2026-05-07 10:36 -30.13796 -70.69433 41175 ft 425 kts 192°
2026-05-07 10:36 -30.19690 -70.70015 41179 ft 425 kts 192°
2026-05-07 10:37 -30.25583 -70.70599 41189 ft 425 kts 192°
2026-05-07 10:37 -30.31488 -70.71183 41182 ft 426 kts 192°
2026-05-07 10:38 -30.37383 -70.71769 41179 ft 426 kts 192°
2026-05-07 10:38 -30.43297 -70.72355 41192 ft 426 kts 192°
2026-05-07 10:39 -30.49167 -70.72939 41184 ft 426 kts 192°
2026-05-07 10:39 -30.55078 -70.73528 41193 ft 427 kts 192°
2026-05-07 10:40 -30.60989 -70.74115 41190 ft 425 kts 192°
2026-05-07 10:40 -30.66901 -70.74683 41194 ft 426 kts 191°
2026-05-07 10:41 -30.72804 -70.75257 41194 ft 425 kts 191°
2026-05-07 10:41 -30.78699 -70.75830 41205 ft 425 kts 191°
2026-05-07 10:42 -30.84601 -70.76404 41201 ft 426 kts 191°
2026-05-07 10:42 -30.90459 -70.76974 41211 ft 425 kts 191°
2026-05-07 10:43 -30.96362 -70.77550 41209 ft 425 kts 191°
2026-05-07 10:43 -31.02256 -70.78126 41215 ft 423 kts 191°
2026-05-07 10:44 -31.08133 -70.78699 41227 ft 425 kts 191°
2026-05-07 10:44 -31.14049 -70.79278 41223 ft 427 kts 191°
2026-05-07 10:45 -31.19948 -70.79859 41213 ft 426 kts 191°
2026-05-07 10:45 -31.25860 -70.80435 41202 ft 425 kts 191°
2026-05-07 10:46 -31.31724 -70.81023 41137 ft 424 kts 191°
2026-05-07 10:46 -31.34674 -70.81307 40448 ft 425 kts 191°
2026-05-07 10:46 -31.37616 -70.81585 39869 ft 422 kts 192°
2026-05-07 10:47 -31.40533 -70.81873 39317 ft 419 kts 192°
2026-05-07 10:47 -31.43423 -70.82163 38739 ft 416 kts 192°
2026-05-07 10:47 -31.46277 -70.82445 38171 ft 408 kts 191°
2026-05-07 10:47 -31.49085 -70.82721 37641 ft 401 kts 191°
2026-05-07 10:48 -31.51835 -70.82992 37148 ft 393 kts 190°
2026-05-07 10:48 -31.54539 -70.83262 36639 ft 387 kts 189°
2026-05-07 10:48 -31.57202 -70.83526 36133 ft 381 kts 189°
2026-05-07 10:48 -31.59814 -70.83784 35655 ft 372 kts 188°
2026-05-07 10:49 -31.62369 -70.84037 35193 ft 366 kts 187°
2026-05-07 10:49 -31.64893 -70.84289 34740 ft 361 kts 187°
2026-05-07 10:49 -31.67360 -70.84533 34282 ft 358 kts 186°
2026-05-07 10:49 -31.69828 -70.84775 33793 ft 353 kts 186°
2026-05-07 10:50 -31.72263 -70.85015 33343 ft 347 kts 186°
2026-05-07 10:50 -31.74644 -70.85242 32918 ft 339 kts 184°
2026-05-07 10:50 -31.76973 -70.85237 32487 ft 331 kts 181°
2026-05-07 10:50 -31.79263 -70.85154 32044 ft 327 kts 181°
2026-05-07 10:51 -31.81520 -70.85079 31595 ft 322 kts 181°
2026-05-07 10:51 -31.83740 -70.85003 31186 ft 317 kts 181°
2026-05-07 10:51 -31.85927 -70.84924 30777 ft 312 kts 181°
2026-05-07 10:51 -31.88074 -70.84845 30371 ft 306 kts 181°
2026-05-07 10:52 -31.90179 -70.84770 29918 ft 299 kts 181°
2026-05-07 10:52 -31.92209 -70.84698 29543 ft 291 kts 181°
2026-05-07 10:52 -31.94232 -70.84626 29152 ft 284 kts 182°
2026-05-07 10:52 -31.96191 -70.84556 28777 ft 279 kts 182°
2026-05-07 10:53 -31.97470 -70.84511 28532 ft 276 kts 182°
2026-05-07 10:53 -31.97683 -70.84504 28497 ft 276 kts 182°
2026-05-07 10:53 -31.98835 -70.84461 28285 ft 272 kts 182°
2026-05-07 10:53 -32.00723 -70.84396 27923 ft 270 kts 183°
2026-05-07 10:54 -32.01973 -70.84354 27683 ft 273 kts 182°
2026-05-07 10:54 -32.03876 -70.84287 27335 ft 272 kts 182°
2026-05-07 10:54 -32.05769 -70.84216 26984 ft 273 kts 183°
2026-05-07 10:54 -32.07677 -70.84148 26620 ft 274 kts 183°
2026-05-07 10:55 -32.09578 -70.84080 26251 ft 272 kts 183°
2026-05-07 10:55 -32.11470 -70.84012 25896 ft 271 kts 183°
2026-05-07 10:55 -32.13352 -70.83945 25539 ft 270 kts 183°
2026-05-07 10:55 -32.15225 -70.83877 25207 ft 268 kts 184°
2026-05-07 10:56 -32.17087 -70.83812 24851 ft 267 kts 184°
2026-05-07 10:56 -32.18963 -70.83745 24471 ft 270 kts 184°
2026-05-07 10:56 -32.20812 -70.83678 24124 ft 269 kts 184°
2026-05-07 10:56 -32.22681 -70.83611 23739 ft 267 kts 184°
2026-05-07 10:57 -32.24532 -70.83543 23369 ft 265 kts 184°
2026-05-07 10:57 -32.26388 -70.83481 23027 ft 268 kts 184°
2026-05-07 10:57 -32.28273 -70.83414 22667 ft 273 kts 184°
2026-05-07 10:57 -32.30184 -70.83344 22313 ft 276 kts 184°
2026-05-07 10:58 -32.32121 -70.83274 21936 ft 280 kts 183°
2026-05-07 10:58 -32.34066 -70.83204 21580 ft 281 kts 183°
2026-05-07 10:58 -32.36033 -70.83134 21210 ft 284 kts 183°
2026-05-07 10:58 -32.38013 -70.83063 20825 ft 286 kts 183°
2026-05-07 10:59 -32.40016 -70.82991 20438 ft 288 kts 183°
2026-05-07 10:59 -32.42002 -70.82920 20073 ft 291 kts 182°
2026-05-07 10:59 -32.44045 -70.82847 19696 ft 296 kts 182°
2026-05-07 10:59 -32.46112 -70.82770 19298 ft 297 kts 183°
2026-05-07 11:00 -32.48190 -70.82696 18914 ft 300 kts 182°
2026-05-07 11:00 -32.50288 -70.82621 18523 ft 303 kts 182°
2026-05-07 11:00 -32.52406 -70.82545 18101 ft 304 kts 182°
2026-05-07 11:00 -32.54517 -70.82467 17674 ft 303 kts 182°
2026-05-07 11:01 -32.56614 -70.82391 17268 ft 301 kts 182°
2026-05-07 11:01 -32.58686 -70.82317 16684 ft 297 kts 181°
2026-05-07 11:01 -32.60759 -70.82242 16257 ft 297 kts 181°
2026-05-07 11:01 -32.62822 -70.82168 15869 ft 296 kts 181°
2026-05-07 11:02 -32.64877 -70.82093 15477 ft 294 kts 181°
2026-05-07 11:02 -32.66924 -70.82020 15079 ft 293 kts 181°
2026-05-07 11:02 -32.68931 -70.81947 14705 ft 289 kts 180°
2026-05-07 11:02 -32.70927 -70.81874 14316 ft 284 kts 180°
2026-05-07 11:03 -32.72887 -70.81803 13933 ft 279 kts 180°
2026-05-07 11:03 -32.74808 -70.81732 13547 ft 273 kts 180°
2026-05-07 11:03 -32.76693 -70.81665 13195 ft 267 kts 180°
2026-05-07 11:03 -32.78532 -70.81598 12849 ft 262 kts 180°
2026-05-07 11:04 -32.80237 -70.81536 12523 ft 259 kts 180°
2026-05-07 11:04 -32.82038 -70.81472 12181 ft 259 kts 180°
2026-05-07 11:04 -32.83833 -70.81407 11849 ft 258 kts 179°
2026-05-07 11:04 -32.85628 -70.81341 11503 ft 257 kts 179°
2026-05-07 11:05 -32.87420 -70.81276 11172 ft 257 kts 179°
2026-05-07 11:05 -32.89210 -70.81210 10826 ft 257 kts 179°
2026-05-07 11:05 -32.90994 -70.81146 10483 ft 256 kts 179°
2026-05-07 11:05 -32.92773 -70.81078 10156 ft 256 kts 178°
2026-05-07 11:06 -32.94550 -70.80980 9785 ft 255 kts 177°
2026-05-07 11:06 -32.96319 -70.80876 9460 ft 255 kts 177°
2026-05-07 11:06 -32.98092 -70.80780 9127 ft 255 kts 178°
2026-05-07 11:06 -32.99858 -70.80688 8788 ft 254 kts 177°
2026-05-07 11:07 -33.01627 -70.80595 8458 ft 254 kts 177°
2026-05-07 11:07 -33.03396 -70.80500 8120 ft 253 kts 177°
2026-05-07 11:07 -33.05133 -70.80408 7789 ft 253 kts 177°
2026-05-07 11:07 -33.06879 -70.80315 7523 ft 249 kts 177°
2026-05-07 11:08 -33.08556 -70.80226 7300 ft 233 kts 177°
2026-05-07 11:08 -33.10134 -70.80142 7003 ft 220 kts 177°
2026-05-07 11:08 -33.11625 -70.80062 6714 ft 209 kts 177°
2026-05-07 11:08 -33.13050 -70.79986 6431 ft 201 kts 177°
2026-05-07 11:09 -33.14421 -70.79912 6157 ft 194 kts 177°
2026-05-07 11:09 -33.15743 -70.79841 5900 ft 186 kts 177°
2026-05-07 11:09 -33.16993 -70.79774 5655 ft 179 kts 177°
2026-05-07 11:09 -33.18212 -70.79708 5414 ft 173 kts 177°
2026-05-07 11:10 -33.19411 -70.79644 5192 ft 172 kts 177°
2026-05-07 11:10 -33.20602 -70.79580 4966 ft 170 kts 177°
2026-05-07 11:10 -33.21781 -70.79517 4722 ft 165 kts 177°
2026-05-07 11:10 -33.22863 -70.79459 4507 ft 148 kts 177°
2026-05-07 11:11 -33.23880 -70.79404 4311 ft 145 kts 177°
2026-05-07 11:11 -33.24884 -70.79350 4115 ft 144 kts 177°
2026-05-07 11:11 -33.25883 -70.79296 3922 ft 144 kts 177°
2026-05-07 11:11 -33.26878 -70.79243 3732 ft 143 kts 177°
2026-05-07 11:12 -33.27868 -70.79190 3543 ft 142 kts 177°
2026-05-07 11:12 -33.28856 -70.79136 3340 ft 142 kts 177°
2026-05-07 11:12 -33.29828 -70.79083 3145 ft 141 kts 177°
2026-05-07 11:12 -33.30813 -70.79036 2943 ft 142 kts 177°
2026-05-07 11:13 -33.31811 -70.79004 2761 ft 146 kts 175°
2026-05-07 11:13 -33.32827 -70.78911 2631 ft 150 kts 174°
2026-05-07 11:13 -33.33902 -70.78822 2401 ft 157 kts 180°
2026-05-07 11:13 -33.34948 -70.78799 2166 ft 139 kts 179°
2026-05-07 11:14 -33.35872 -70.78756 1928 ft 134 kts 177°
2026-05-07 11:14 -33.36838 -70.78696 1795 ft 145 kts 179°
2026-05-07 11:14 -33.37952 -70.78667 2345 ft 177 kts 178°
2026-05-07 11:14 -33.39251 -70.78567 3606 ft 201 kts 173°
2026-05-07 11:15 -33.40654 -70.78056 4396 ft 219 kts 157°
2026-05-07 11:15 -33.42109 -70.77360 4990 ft 226 kts 155°
2026-05-07 11:15 -33.43555 -70.76445 5043 ft 240 kts 150°
2026-05-07 11:15 -33.44981 -70.75486 4996 ft 233 kts 151°
2026-05-07 11:16 -33.46416 -70.74591 5001 ft 232 kts 153°
2026-05-07 11:16 -33.47711 -70.73413 4985 ft 242 kts 123°
2026-05-07 11:16 -33.48240 -70.71516 5010 ft 244 kts 90°
2026-05-07 11:16 -33.47856 -70.69545 5034 ft 244 kts 70°
2026-05-07 11:17 -33.47220 -70.67653 5031 ft 245 kts 66°
2026-05-07 11:17 -33.46254 -70.66004 4997 ft 245 kts 38°
2026-05-07 11:17 -33.44751 -70.65172 5078 ft 241 kts 10°
2026-05-07 11:17 -33.43124 -70.64863 5350 ft 223 kts 10°
2026-05-07 11:18 -33.41617 -70.64545 5612 ft 218 kts 10°
2026-05-07 11:18 -33.40122 -70.64374 5817 ft 217 kts 353°
2026-05-07 11:18 -33.38721 -70.65025 6009 ft 216 kts 335°
2026-05-07 11:18 -33.37344 -70.65742 6011 ft 218 kts 337°
2026-05-07 11:19 -33.35954 -70.66445 6008 ft 217 kts 337°
2026-05-07 11:19 -33.34568 -70.67159 6010 ft 216 kts 337°
2026-05-07 11:19 -33.33186 -70.67877 6008 ft 216 kts 337°
2026-05-07 11:19 -33.31806 -70.68592 6010 ft 216 kts 337°
2026-05-07 11:20 -33.30387 -70.69154 5974 ft 216 kts 352°
2026-05-07 11:20 -33.28897 -70.69304 6001 ft 215 kts 355°
2026-05-07 11:20 -33.27428 -70.69481 5857 ft 205 kts 354°
2026-05-07 11:20 -33.26042 -70.69654 5698 ft 197 kts 354°
2026-05-07 11:21 -33.24688 -70.69820 5528 ft 194 kts 354°
2026-05-07 11:21 -33.23348 -70.69981 5374 ft 193 kts 354°
2026-05-07 11:21 -33.22009 -70.70143 5220 ft 193 kts 354°
2026-05-07 11:21 -33.20696 -70.70298 5073 ft 191 kts 355°
2026-05-07 11:22 -33.19378 -70.70491 4984 ft 190 kts 348°
2026-05-07 11:22 -33.18177 -70.71151 4985 ft 192 kts 326°
2026-05-07 11:22 -33.17249 -70.72323 4980 ft 193 kts 303°
2026-05-07 11:22 -33.16757 -70.73784 4984 ft 194 kts 282°
2026-05-07 11:23 -33.16745 -70.75386 4982 ft 194 kts 261°
2026-05-07 11:23 -33.17224 -70.76877 4989 ft 192 kts 239°
2026-05-07 11:23 -33.17999 -70.78084 4990 ft 177 kts 230°
2026-05-07 11:23 -33.18860 -70.79114 4982 ft 174 kts 216°
2026-05-07 11:24 -33.19989 -70.79539 4964 ft 170 kts 184°
2026-05-07 11:24 -33.21194 -70.79523 4838 ft 175 kts 177°
2026-05-07 11:24 -33.22399 -70.79473 4609 ft 171 kts 178°
2026-05-07 11:24 -33.23586 -70.79427 4375 ft 170 kts 177°
2026-05-07 11:25 -33.24758 -70.79365 4144 ft 168 kts 177°
2026-05-07 11:25 -33.25919 -70.79302 3916 ft 163 kts 177°
2026-05-07 11:25 -33.26993 -70.79245 3695 ft 145 kts 177°
2026-05-07 11:25 -33.27979 -70.79193 3512 ft 141 kts 176°
2026-05-07 11:26 -33.28954 -70.79139 3310 ft 140 kts 176°
2026-05-07 11:26 -33.29921 -70.79087 3110 ft 140 kts 177°
2026-05-07 11:26 -33.30892 -70.79035 2918 ft 140 kts 177°
2026-05-07 11:26 -33.31856 -70.78983 2724 ft 140 kts 177°
2026-05-07 11:27 -33.32839 -70.78930 2515 ft 142 kts 177°
2026-05-07 11:27 -33.33824 -70.78870 2317 ft 140 kts 176°
2026-05-07 11:27 -33.34808 -70.78804 2151 ft 142 kts 176°
2026-05-07 11:27 -33.35776 -70.78758 1954 ft 140 kts 179°
2026-05-07 11:28 -33.36744 -70.78707 1767 ft 138 kts 177°
2026-05-07 11:28 -33.37701 -70.78662 1607 ft 138 kts 177°
2026-05-07 11:28 -33.38538 -70.78622 1571 ft 91 kts 178°
2026-05-07 11:28 -33.38965 -70.78597 1571 ft 37 kts 177°
2026-05-07 11:29 -33.39205 -70.78584 1569 ft 33 kts 178°
2026-05-07 11:29 -33.39422 -70.78578 1570 ft 29 kts 183°
2026-05-07 11:29 -33.39606 -70.78646 1569 ft 26 kts 205°
2026-05-07 11:29 -33.39712 -70.78709 1570 ft 12 kts 207°
2026-05-07 11:30 -33.39728 -70.78732 1570 ft 2 kts 253°
2026-05-07 11:30 -33.39710 -70.78761 1570 ft 7 kts 324°
2026-05-07 11:30 -33.39658 -70.78777 1570 ft 9 kts 355°
2026-05-07 11:30 -33.39578 -70.78781 1570 ft 16 kts 357°
2026-05-07 11:31 -33.39439 -70.78789 1570 ft 22 kts 358°
2026-05-07 11:31 -33.39394 -70.78824 1570 ft 6 kts 290°
2026-05-07 11:31 -33.39393 -70.78894 1570 ft 11 kts 265°
2026-05-07 11:31 -33.39398 -70.78997 1570 ft 14 kts 267°
2026-05-07 11:32 -33.39408 -70.79264 1570 ft 18 kts 267°
2026-05-07 11:32 -33.39416 -70.79419 1570 ft 19 kts 266°
2026-05-07 11:32 -33.39426 -70.79586 1570 ft 21 kts 265°
2026-05-07 11:33 -33.39437 -70.79753 1570 ft 11 kts 267°
2026-05-07 11:33 -33.39474 -70.79794 1570 ft 8 kts 187°
2026-05-07 11:33 -33.39519 -70.79812 1570 ft 5 kts 234°
2026-05-07 11:33 -33.39527 -70.79869 1570 ft 9 kts 266°
2026-05-07 11:34 -33.39545 -70.79931 1571 ft 4 kts 212°
2026-05-07 11:34 -33.39616 -70.79939 1571 ft 13 kts 173°
2026-05-07 11:34 -33.39715 -70.79931 1571 ft 16 kts 177°
2026-05-07 11:34 -33.39831 -70.79924 1571 ft 17 kts 177°
2026-05-07 11:35 -33.39956 -70.79914 1571 ft 19 kts 175°
2026-05-07 11:35 -33.40084 -70.79904 1571 ft 17 kts 177°
2026-05-07 11:35 -33.40160 -70.79871 1571 ft 8 kts 117°
2026-05-07 11:35 -33.40156 -70.79808 1570 ft 4 kts 59°
2026-05-07 11:36 -33.40121 -70.79794 1570 ft 7 kts
2026-05-07 11:36 -33.40089 -70.79797 1570 ft 2 kts 357°
2026-05-07 11:36 -33.40082 -70.79797 1570 ft 0 kts 357°